| time (UTC) | temp C | wind direction | speed KPH | gust KPH | rain 1hr cm | rain 24hr cm | rain mn cm | humidity % | barometer mb |
| 20260510093603 | 12 | 347 | 6.4 | 17.7 | 0.00 | 0.00 | 0.00 | 77 | 1015.8 |
| 20260510093404 | 12 | 307 | 6.4 | 17.7 | 0.00 | 0.00 | 0.00 | 77 | 1016.1 |
| 20260510093303 | 12 | 332 | 6.4 | 17.7 | 0.00 | 0.00 | 0.00 | 77 | 1016.1 |
| 20260510093204 | 12 | 329 | 6.4 | 17.7 | 0.00 | 0.00 | 0.00 | 77 | 1016.0 |
| 20260510093103 | 12 | 356 | 6.4 | 17.7 | 0.00 | 0.00 | 0.00 | 77 | 1015.9 |
| 20260510093003 | 12 | 344 | 6.4 | 17.7 | 0.00 | 0.00 | 0.00 | 77 | 1016.0 |
| 20260510092903 | 12 | 10 | 6.4 | 17.7 | 0.00 | 0.00 | 0.00 | 76 | 1016.1 |
| 20260510092803 | 12 | 114 | 6.4 | 17.7 | 0.00 | 0.00 | 0.00 | 76 | 1016.0 |
| 20260510092703 | 12 | 119 | 6.4 | 17.7 | 0.00 | 0.00 | 0.00 | 76 | 1016.1 |
| 20260510092603 | 12 | 68 | 6.4 | 17.7 | 0.00 | 0.00 | 0.00 | 77 | 1016.1 |
| 20260510092503 | 12 | 67 | 6.4 | 14.5 | 0.00 | 0.00 | 0.00 | 76 | 1016.0 |
| 20260510092403 | 12 | 14 | 6.4 | 14.5 | 0.00 | 0.00 | 0.00 | 76 | 1016.1 |
| 20260510092306 | 12 | 55 | 6.4 | 14.5 | 0.00 | 0.00 | 0.00 | 76 | 1016.1 |
| 20260510092203 | 12 | 356 | 6.4 | 14.5 | 0.00 | 0.00 | 0.00 | 76 | 1016.2 |
| 20260510092103 | 12 | 350 | 6.4 | 14.5 | 0.00 | 0.00 | 0.00 | 77 | 1016.3 |
| 20260510092003 | 12 | 7 | 6.4 | 14.5 | 0.00 | 0.00 | 0.00 | 77 | 1016.2 |
| 20260510091903 | 12 | 13 | 4.8 | 14.5 | 0.00 | 0.00 | 0.00 | 78 | 1016.3 |
| 20260510091803 | 12 | 327 | 4.8 | 14.5 | 0.00 | 0.00 | 0.00 | 78 | 1016.3 |
| 20260510091703 | 12 | 346 | 4.8 | 14.5 | 0.00 | 0.00 | 0.00 | 78 | 1016.1 |
| 20260510091603 | 12 | 360 | 4.8 | 14.5 | 0.00 | 0.00 | 0.00 | 78 | 1016.1 |
| 20260510091503 | 12 | 22 | 4.8 | 14.5 | 0.00 | 0.00 | 0.00 | 78 | 1016.0 |
| 20260510091403 | 12 | 32 | 4.8 | 14.5 | 0.00 | 0.00 | 0.00 | 78 | 1016.1 |
| 20260510091303 | 12 | 27 | 4.8 | 14.5 | 0.00 | 0.00 | 0.00 | 79 | 1016.2 |
| 20260510091203 | 12 | 72 | 3.2 | 14.5 | 0.00 | 0.00 | 0.00 | 79 | 1016.1 |
| 20260510091104 | 12 | 78 | 3.2 | 14.5 | 0.00 | 0.00 | 0.00 | 79 | 1016.1 |
| 20260510091003 | 12 | 77 | 3.2 | 14.5 | 0.00 | 0.00 | 0.00 | 79 | 1016.2 |
| 20260510090903 | 12 | 90 | 4.8 | 12.9 | 0.00 | 0.00 | 0.00 | 79 | 1016.1 |
| 20260510090803 | 12 | 68 | 4.8 | 12.9 | 0.00 | 0.00 | 0.00 | 79 | 1016.1 |
| 20260510090703 | 12 | 127 | 4.8 | 14.5 | 0.00 | 0.00 | 0.00 | 79 | 1016.1 |
| 20260510090604 | 12 | 127 | 4.8 | 14.5 | 0.00 | 0.00 | 0.00 | 79 | 1016.0 |
| 20260510090504 | 12 | 158 | 4.8 | 16.1 | 0.00 | 0.00 | 0.00 | 79 | 1016.1 |
| 20260510090403 | 12 | 140 | 4.8 | 16.1 | 0.00 | 0.00 | 0.00 | 79 | 1016.1 |
| 20260510090303 | 12 | 116 | 4.8 | 16.1 | 0.00 | 0.00 | 0.00 | 79 | 1016.1 |
| 20260510090203 | 12 | 105 | 4.8 | 17.7 | 0.00 | 0.00 | 0.00 | 79 | 1016.1 |
| 20260510090004 | 12 | 343 | 4.8 | 22.5 | 0.00 | 0.00 | 0.00 | 79 | 1016.3 |
| 20260510085904 | 12 | 38 | 4.8 | 22.5 | 0.00 | 0.00 | 0.00 | 79 | 1016.2 |
| 20260510085803 | 12 | 108 | 4.8 | 22.5 | 0.00 | 0.00 | 0.00 | 79 | 1016.2 |
| 20260510085714 | 12 | 108 | 4.8 | 22.5 | 0.00 | 0.00 | 0.00 | 79 | 1016.2 |
| 20260510085703 | 11 | 52 | 4.8 | 22.5 | 0.00 | 0.00 | 0.00 | 79 | 1016.1 |
| 20260510085603 | 11 | 38 | 4.8 | 22.5 | 0.00 | 0.00 | 0.00 | 79 | 1016.1 |
| 20260510085403 | 11 | 38 | 6.4 | 22.5 | 0.00 | 0.00 | 0.00 | 80 | 1016.0 |
| 20260510085306 | 11 | 30 | 6.4 | 22.5 | 0.00 | 0.00 | 0.00 | 80 | 1015.9 |
| 20260510085217 | 11 | 30 | 6.4 | 22.5 | 0.00 | 0.00 | 0.00 | 80 | 1015.9 |
| 20260510085203 | 11 | 50 | 6.4 | 22.5 | 0.00 | 0.00 | 0.00 | 80 | 1016.1 |
| 20260510085103 | 11 | 69 | 6.4 | 22.5 | 0.00 | 0.00 | 0.00 | 80 | 1016.2 |
| 20260510084903 | 11 | 37 | 6.4 | 22.5 | 0.00 | 0.00 | 0.00 | 80 | 1015.9 |
| 20260510084817 | 11 | 37 | 6.4 | 22.5 | 0.00 | 0.00 | 0.00 | 80 | 1015.9 |
| 20260510084803 | 11 | 26 | 6.4 | 19.3 | 0.00 | 0.00 | 0.00 | 79 | 1015.9 |
| 20260510084704 | 11 | 31 | 6.4 | 17.7 | 0.00 | 0.00 | 0.00 | 80 | 1016.1 |
| 20260510084503 | 11 | 190 | 4.8 | 17.7 | 0.00 | 0.00 | 0.00 | 80 | 1015.9 |
| 20260510084404 | 11 | 194 | 4.8 | 17.7 | 0.00 | 0.00 | 0.00 | 80 | 1016.0 |
| 20260510084304 | 11 | 190 | 4.8 | 17.7 | 0.00 | 0.00 | 0.00 | 80 | 1016.0 |
| 20260510084203 | 11 | 229 | 4.8 | 17.7 | 0.00 | 0.00 | 0.00 | 80 | 1015.9 |
| 20260510084103 | 11 | 247 | 4.8 | 17.7 | 0.00 | 0.00 | 0.00 | 81 | 1015.9 |
| 20260510084015 | 11 | 247 | 4.8 | 17.7 | 0.00 | 0.00 | 0.00 | 81 | 1015.9 |
| 20260510084003 | 11 | 238 | 4.8 | 17.7 | 0.00 | 0.00 | 0.00 | 81 | 1016.0 |
| 20260510083904 | 11 | 9 | 4.8 | 17.7 | 0.00 | 0.00 | 0.00 | 81 | 1016.2 |
| 20260510083716 | 11 | 257 | 4.8 | 17.7 | 0.00 | 0.00 | 0.00 | 81 | 1015.8 |
| 20260510083706 | 11 | 32 | 4.8 | 17.7 | 0.00 | 0.00 | 0.00 | 81 | 1015.8 |
| 20260510083615 | 11 | 32 | 4.8 | 17.7 | 0.00 | 0.00 | 0.00 | 81 | 1015.8 |
| 20260510083604 | 11 | 37 | 4.8 | 17.7 | 0.00 | 0.00 | 0.00 | 81 | 1016.0 |
| 20260510083513 | 11 | 37 | 4.8 | 17.7 | 0.00 | 0.00 | 0.00 | 81 | 1016.0 |
| 20260510083203 | 11 | 333 | 6.4 | 17.7 | 0.00 | 0.00 | 0.00 | 82 | 1015.8 |
| 20260510083103 | 11 | 329 | 6.4 | 16.1 | 0.00 | 0.00 | 0.00 | 82 | 1016.0 |
| 20260510083016 | 11 | 329 | 6.4 | 16.1 | 0.00 | 0.00 | 0.00 | 82 | 1016.0 |
| 20260510083003 | 11 | 5 | 6.4 | 16.1 | 0.00 | 0.00 | 0.00 | 82 | 1015.9 |
| 20260510082903 | 11 | 346 | 4.8 | 16.1 | 0.00 | 0.00 | 0.00 | 82 | 1015.9 |
| 20260510082717 | 11 | 328 | 4.8 | 16.1 | 0.00 | 0.00 | 0.00 | 82 | 1015.9 |
| 20260510082704 | 11 | 311 | 4.8 | 16.1 | 0.00 | 0.00 | 0.00 | 82 | 1016.0 |
| 20260510082604 | 11 | 242 | 4.8 | 16.1 | 0.00 | 0.00 | 0.00 | 82 | 1016.1 |
| 20260510082403 | 11 | 147 | 4.8 | 16.1 | 0.00 | 0.00 | 0.00 | 82 | 1016.0 |
| 20260510082306 | 11 | 121 | 4.8 | 14.5 | 0.00 | 0.00 | 0.00 | 82 | 1015.9 |
| 20260510082203 | 11 | 96 | 4.8 | 14.5 | 0.00 | 0.00 | 0.00 | 83 | 1015.9 |
| 20260510082104 | 11 | 100 | 4.8 | 14.5 | 0.00 | 0.00 | 0.00 | 83 | 1015.9 |
| 20260510082003 | 11 | 115 | 4.8 | 14.5 | 0.00 | 0.00 | 0.00 | 83 | 1016.2 |
| 20260510081903 | 11 | 97 | 4.8 | 14.5 | 0.00 | 0.00 | 0.00 | 83 | 1016.0 |
| 20260510081804 | 11 | 82 | 4.8 | 14.5 | 0.00 | 0.00 | 0.00 | 83 | 1016.0 |
| 20260510081713 | 11 | 82 | 4.8 | 14.5 | 0.00 | 0.00 | 0.00 | 83 | 1016.0 |
| 20260510081704 | 11 | 79 | 4.8 | 14.5 | 0.00 | 0.00 | 0.00 | 83 | 1016.0 |
| 20260510081603 | 11 | 74 | 4.8 | 14.5 | 0.00 | 0.00 | 0.00 | 83 | 1016.0 |
| 20260510081403 | 11 | 83 | 4.8 | 14.5 | 0.00 | 0.00 | 0.00 | 83 | 1016.2 |
| 20260510081318 | 11 | 83 | 4.8 | 14.5 | 0.00 | 0.00 | 0.00 | 83 | 1016.2 |
| 20260510081303 | 11 | 73 | 4.8 | 14.5 | 0.00 | 0.00 | 0.00 | 83 | 1016.0 |
| 20260510081203 | 11 | 80 | 4.8 | 14.5 | 0.00 | 0.00 | 0.00 | 83 | 1016.0 |
| 20260510081013 | 11 | 62 | 4.8 | 14.5 | 0.00 | 0.00 | 0.00 | 83 | 1016.0 |
| 20260510081003 | 11 | 52 | 4.8 | 11.3 | 0.00 | 0.00 | 0.00 | 83 | 1016.0 |
| 20260510080904 | 11 | 55 | 4.8 | 11.3 | 0.00 | 0.00 | 0.00 | 83 | 1016.1 |
| 20260510080708 | 11 | 64 | 4.8 | 11.3 | 0.00 | 0.00 | 0.00 | 83 | 1016.2 |
| 20260510080603 | 11 | 24 | 4.8 | 11.3 | 0.00 | 0.00 | 0.00 | 83 | 1016.2 |
| 20260510080503 | 11 | 41 | 4.8 | 11.3 | 0.00 | 0.00 | 0.00 | 83 | 1016.1 |
| 20260510080403 | 11 | 30 | 4.8 | 11.3 | 0.00 | 0.00 | 0.00 | 83 | 1016.0 |
| 20260510080304 | 11 | 35 | 4.8 | 11.3 | 0.00 | 0.00 | 0.00 | 83 | 1016.1 |
| 20260510080204 | 11 | 51 | 3.2 | 12.9 | 0.00 | 0.00 | 0.00 | 83 | 1016.2 |
| 20260510080104 | 11 | 112 | 3.2 | 12.9 | 0.00 | 0.00 | 0.00 | 83 | 1016.1 |
| 20260510080003 | 11 | 104 | 3.2 | 12.9 | 0.00 | 0.00 | 0.00 | 83 | 1016.2 |
| 20260510075904 | 11 | 112 | 3.2 | 12.9 | 0.00 | 0.00 | 0.00 | 83 | 1016.2 |
| 20260510075804 | 11 | 101 | 3.2 | 12.9 | 0.00 | 0.00 | 0.00 | 83 | 1016.1 |
| 20260510075703 | 11 | 104 | 3.2 | 12.9 | 0.00 | 0.00 | 0.00 | 83 | 1016.2 |
| 20260510075603 | 11 | 101 | 3.2 | 12.9 | 0.00 | 0.00 | 0.00 | 83 | 1016.1 |
| 20260510075504 | 11 | 94 | 3.2 | 12.9 | 0.00 | 0.00 | 0.00 | 83 | 1016.0 |
| 20260510075403 | 11 | 101 | 3.2 | 12.9 | 0.00 | 0.00 | 0.00 | 83 | 1016.1 |
| 20260510075306 | 11 | 78 | 3.2 | 12.9 | 0.00 | 0.00 | 0.00 | 83 | 1016.4 |
| 20260510075203 | 11 | 57 | 4.8 | 12.9 | 0.00 | 0.00 | 0.00 | 83 | 1016.1 |
| 20260510075104 | 11 | 42 | 4.8 | 11.3 | 0.00 | 0.00 | 0.00 | 83 | 1016.0 |
| 20260510075003 | 11 | 48 | 3.2 | 11.3 | 0.00 | 0.00 | 0.00 | 83 | 1016.1 |
| 20260510074903 | 11 | 26 | 3.2 | 11.3 | 0.00 | 0.00 | 0.00 | 83 | 1016.2 |
| 20260510074803 | 11 | 37 | 4.8 | 11.3 | 0.00 | 0.00 | 0.00 | 83 | 1016.1 |
| 20260510074703 | 11 | 41 | 4.8 | 11.3 | 0.00 | 0.00 | 0.00 | 83 | 1016.1 |
| 20260510074604 | 11 | 24 | 4.8 | 12.9 | 0.00 | 0.00 | 0.00 | 83 | 1016.2 |
| 20260510074503 | 11 | 318 | 4.8 | 12.9 | 0.00 | 0.00 | 0.00 | 83 | 1016.3 |
| 20260510074403 | 11 | 115 | 4.8 | 16.1 | 0.00 | 0.00 | 0.00 | 83 | 1016.2 |
| 20260510074315 | 11 | 115 | 4.8 | 16.1 | 0.00 | 0.00 | 0.00 | 83 | 1016.2 |
| 20260510074303 | 11 | 112 | 4.8 | 19.3 | 0.00 | 0.00 | 0.00 | 83 | 1016.2 |
| 20260510074204 | 11 | 135 | 4.8 | 19.3 | 0.00 | 0.00 | 0.00 | 83 | 1016.1 |
| 20260510074117 | 11 | 135 | 4.8 | 19.3 | 0.00 | 0.00 | 0.00 | 83 | 1016.1 |
| 20260510074004 | 11 | 161 | 4.8 | 19.3 | 0.00 | 0.00 | 0.00 | 83 | 1016.1 |
| 20260510073803 | 11 | 177 | 4.8 | 19.3 | 0.00 | 0.00 | 0.00 | 83 | 1016.1 |
| 20260510073704 | 11 | 171 | 4.8 | 19.3 | 0.00 | 0.00 | 0.00 | 83 | 1016.1 |
| 20260510073603 | 11 | 172 | 4.8 | 19.3 | 0.00 | 0.00 | 0.00 | 83 | 1016.2 |
| 20260510073504 | 11 | 180 | 4.8 | 19.3 | 0.00 | 0.00 | 0.00 | 83 | 1016.2 |
| 20260510073403 | 11 | 171 | 4.8 | 19.3 | 0.00 | 0.00 | 0.00 | 83 | 1016.1 |
| 20260510073303 | 11 | 175 | 4.8 | 19.3 | 0.00 | 0.00 | 0.00 | 83 | 1016.2 |
| 20260510073203 | 11 | 333 | 4.8 | 19.3 | 0.00 | 0.00 | 0.00 | 83 | 1016.1 |
| 20260510073103 | 11 | 40 | 3.2 | 16.1 | 0.00 | 0.00 | 0.00 | 83 | 1016.2 |
| 20260510073004 | 11 | 13 | 4.8 | 16.1 | 0.00 | 0.00 | 0.00 | 83 | 1016.1 |
| 20260510072916 | 11 | 13 | 4.8 | 16.1 | 0.00 | 0.00 | 0.00 | 83 | 1016.1 |
| 20260510072904 | 11 | 357 | 3.2 | 16.1 | 0.00 | 0.00 | 0.00 | 83 | 1016.1 |
| 20260510072803 | 11 | 42 | 3.2 | 16.1 | 0.00 | 0.00 | 0.00 | 83 | 1016.2 |
| 20260510072616 | 11 | 66 | 3.2 | 16.1 | 0.00 | 0.00 | 0.00 | 83 | 1016.1 |
| 20260510072603 | 11 | 72 | 3.2 | 16.1 | 0.00 | 0.00 | 0.00 | 83 | 1016.2 |
| 20260510072504 | 11 | 68 | 4.8 | 16.1 | 0.00 | 0.00 | 0.00 | 83 | 1016.2 |
| 20260510072305 | 11 | 96 | 3.2 | 16.1 | 0.00 | 0.00 | 0.00 | 83 | 1016.1 |
| 20260510072203 | 11 | 125 | 3.2 | 12.9 | 0.00 | 0.00 | 0.00 | 83 | 1016.3 |
| 20260510072104 | 11 | 124 | 3.2 | 12.9 | 0.00 | 0.00 | 0.00 | 83 | 1016.1 |
| 20260510072003 | 11 | 127 | 3.2 | 12.9 | 0.00 | 0.00 | 0.00 | 83 | 1016.4 |
| 20260510071908 | 11 | 127 | 3.2 | 12.9 | 0.00 | 0.00 | 0.00 | 83 | 1016.4 |
| 20260510071808 | 11 | 116 | 3.2 | 12.9 | 0.00 | 0.00 | 0.00 | 83 | 1016.2 |
| 20260510071703 | 11 | 118 | 3.2 | 11.3 | 0.00 | 0.00 | 0.00 | 83 | 1016.3 |
| 20260510071505 | 11 | 119 | 3.2 | 11.3 | 0.00 | 0.00 | 0.00 | 84 | 1016.3 |
| 20260510071415 | 11 | 119 | 3.2 | 11.3 | 0.00 | 0.00 | 0.00 | 84 | 1016.3 |
| 20260510071404 | 11 | 110 | 3.2 | 11.3 | 0.00 | 0.00 | 0.00 | 84 | 1016.2 |
| 20260510071303 | 11 | 92 | 3.2 | 11.3 | 0.00 | 0.00 | 0.00 | 84 | 1016.2 |
| 20260510071103 | 11 | 88 | 3.2 | 11.3 | 0.00 | 0.00 | 0.00 | 84 | 1016.1 |
| 20260510071004 | 11 | 93 | 3.2 | 12.9 | 0.00 | 0.00 | 0.00 | 84 | 1016.3 |
| 20260510070904 | 11 | 93 | 3.2 | 12.9 | 0.00 | 0.00 | 0.00 | 84 | 1016.3 |
| 20260510070803 | 11 | 83 | 3.2 | 12.9 | 0.00 | 0.00 | 0.00 | 84 | 1016.2 |
| 20260510070704 | 11 | 95 | 3.2 | 12.9 | 0.00 | 0.00 | 0.00 | 84 | 1016.2 |
| 20260510070603 | 11 | 80 | 3.2 | 12.9 | 0.00 | 0.00 | 0.00 | 84 | 1016.2 |
| 20260510070504 | 11 | 99 | 3.2 | 14.5 | 0.00 | 0.00 | 0.00 | 84 | 1016.2 |
| 20260510070403 | 11 | 95 | 3.2 | 14.5 | 0.00 | 0.00 | 0.00 | 84 | 1016.2 |
| 20260510070304 | 11 | 86 | 4.8 | 14.5 | 0.00 | 0.00 | 0.00 | 84 | 1016.3 |
| 20260510070218 | 11 | 86 | 4.8 | 14.5 | 0.00 | 0.00 | 0.00 | 84 | 1016.3 |
| 20260510070203 | 11 | 75 | 4.8 | 14.5 | 0.00 | 0.00 | 0.00 | 84 | 1016.3 |
| 20260510070103 | 11 | 80 | 4.8 | 14.5 | 0.00 | 0.00 | 0.00 | 84 | 1016.5 |
| 20260510065904 | 11 | 99 | 3.2 | 16.1 | 0.00 | 0.00 | 0.00 | 84 | 1016.4 |
| 20260510065804 | 11 | 102 | 4.8 | 16.1 | 0.00 | 0.00 | 0.00 | 84 | 1016.3 |
| 20260510065716 | 11 | 102 | 4.8 | 16.1 | 0.00 | 0.00 | 0.00 | 84 | 1016.3 |
| 20260510065704 | 11 | 15 | 4.8 | 16.1 | 0.00 | 0.00 | 0.00 | 84 | 1016.2 |
| 20260510065604 | 11 | 278 | 4.8 | 16.1 | 0.00 | 0.00 | 0.00 | 84 | 1016.3 |
| 20260510065404 | 11 | 320 | 4.8 | 16.1 | 0.00 | 0.00 | 0.00 | 84 | 1016.1 |
| 20260510065306 | 11 | 301 | 3.2 | 16.1 | 0.00 | 0.00 | 0.00 | 84 | 1016.2 |
| 20260510065214 | 11 | 301 | 3.2 | 16.1 | 0.00 | 0.00 | 0.00 | 84 | 1016.2 |
| 20260510065203 | 11 | 311 | 3.2 | 16.1 | 0.00 | 0.00 | 0.00 | 84 | 1016.3 |
| 20260510065104 | 11 | 310 | 3.2 | 16.1 | 0.00 | 0.00 | 0.00 | 84 | 1016.1 |
| 20260510065016 | 11 | 310 | 3.2 | 16.1 | 0.00 | 0.00 | 0.00 | 84 | 1016.1 |
| 20260510064914 | 11 | 331 | 3.2 | 16.1 | 0.00 | 0.00 | 0.00 | 84 | 1016.3 |
| 20260510064903 | 11 | 349 | 4.8 | 16.1 | 0.00 | 0.00 | 0.00 | 83 | 1016.1 |
| 20260510064813 | 11 | 349 | 4.8 | 16.1 | 0.00 | 0.00 | 0.00 | 83 | 1016.1 |
| 20260510064504 | 11 | 9 | 3.2 | 11.3 | 0.00 | 0.00 | 0.00 | 83 | 1016.4 |
| 20260510064403 | 11 | 350 | 3.2 | 11.3 | 0.00 | 0.00 | 0.00 | 83 | 1016.2 |
| 20260510064303 | 11 | 346 | 4.8 | 11.3 | 0.00 | 0.00 | 0.00 | 83 | 1016.3 |
| 20260510064203 | 11 | 7 | 3.2 | 11.3 | 0.00 | 0.00 | 0.00 | 84 | 1016.3 |
| 20260510064103 | 11 | 13 | 3.2 | 11.3 | 0.00 | 0.00 | 0.00 | 84 | 1016.1 |
| 20260510064003 | 11 | 29 | 3.2 | 11.3 | 0.00 | 0.00 | 0.00 | 84 | 1016.1 |
| 20260510063904 | 11 | 63 | 3.2 | 11.3 | 0.00 | 0.00 | 0.00 | 84 | 1016.0 |
| 20260510063814 | 11 | 63 | 3.2 | 11.3 | 0.00 | 0.00 | 0.00 | 84 | 1016.0 |
| 20260510063803 | 11 | 101 | 3.2 | 11.3 | 0.00 | 0.00 | 0.00 | 84 | 1016.2 |
| 20260510063703 | 11 | 123 | 3.2 | 11.3 | 0.00 | 0.00 | 0.00 | 84 | 1016.2 |
| 20260510063503 | 11 | 115 | 3.2 | 12.9 | 0.00 | 0.00 | 0.00 | 84 | 1016.2 |
| 20260510063404 | 11 | 128 | 1.6 | 12.9 | 0.00 | 0.00 | 0.00 | 84 | 1016.2 |
| 20260510063303 | 11 | 126 | 3.2 | 12.9 | 0.00 | 0.00 | 0.00 | 84 | 1016.1 |
| 20260510063203 | 11 | 124 | 3.2 | 12.9 | 0.00 | 0.00 | 0.00 | 84 | 1016.2 |
| 20260510063104 | 11 | 109 | 3.2 | 12.9 | 0.00 | 0.00 | 0.00 | 84 | 1016.1 |
| 20260510063004 | 11 | 125 | 3.2 | 12.9 | 0.00 | 0.00 | 0.00 | 84 | 1016.2 |
| 20260510062903 | 11 | 162 | 3.2 | 12.9 | 0.00 | 0.00 | 0.00 | 84 | 1016.2 |
| 20260510062804 | 11 | 221 | 3.2 | 12.9 | 0.00 | 0.00 | 0.00 | 84 | 1016.0 |
| 20260510062703 | 11 | 242 | 3.2 | 12.9 | 0.00 | 0.00 | 0.00 | 84 | 1016.1 |
| 20260510062603 | 11 | 266 | 3.2 | 12.9 | 0.00 | 0.00 | 0.00 | 84 | 1016.1 |
| 20260510062503 | 11 | 238 | 3.2 | 12.9 | 0.00 | 0.00 | 0.00 | 84 | 1016.2 |
| 20260510062403 | 11 | 175 | 4.8 | 12.9 | 0.00 | 0.00 | 0.00 | 84 | 1016.1 |
| 20260510062306 | 11 | 144 | 4.8 | 12.9 | 0.00 | 0.00 | 0.00 | 84 | 1016.1 |
| 20260510062204 | 11 | 80 | 3.2 | 16.1 | 0.00 | 0.00 | 0.00 | 84 | 1016.1 |
| 20260510062103 | 11 | 182 | 4.8 | 16.1 | 0.00 | 0.00 | 0.00 | 84 | 1016.3 |
| 20260510062004 | 11 | 162 | 4.8 | 16.1 | 0.00 | 0.00 | 0.00 | 84 | 1015.9 |
| 20260510061903 | 11 | 152 | 4.8 | 16.1 | 0.00 | 0.00 | 0.00 | 84 | 1016.0 |
| 20260510061804 | 11 | 149 | 4.8 | 16.1 | 0.00 | 0.00 | 0.00 | 84 | 1016.2 |
| 20260510061714 | 11 | 149 | 4.8 | 16.1 | 0.00 | 0.00 | 0.00 | 84 | 1016.2 |
| 20260510061703 | 11 | 113 | 4.8 | 16.1 | 0.00 | 0.00 | 0.00 | 84 | 1016.2 |
| 20260510061603 | 11 | 98 | 4.8 | 16.1 | 0.00 | 0.00 | 0.00 | 84 | 1016.0 |
| 20260510061404 | 11 | 59 | 4.8 | 16.1 | 0.00 | 0.00 | 0.00 | 84 | 1016.2 |
| 20260510061314 | 11 | 59 | 4.8 | 16.1 | 0.00 | 0.00 | 0.00 | 84 | 1016.2 |
| 20260510061303 | 11 | 43 | 4.8 | 16.1 | 0.00 | 0.00 | 0.00 | 84 | 1016.2 |
| 20260510061204 | 11 | 43 | 4.8 | 16.1 | 0.00 | 0.00 | 0.00 | 85 | 1016.3 |
| 20260510061003 | 11 | 28 | 4.8 | 14.5 | 0.00 | 0.00 | 0.00 | 85 | 1016.2 |
| 20260510060904 | 11 | 31 | 4.8 | 14.5 | 0.00 | 0.00 | 0.00 | 85 | 1016.3 |
| 20260510060803 | 11 | 43 | 4.8 | 14.5 | 0.00 | 0.00 | 0.00 | 85 | 1016.3 |
| 20260510060703 | 11 | 45 | 4.8 | 14.5 | 0.00 | 0.00 | 0.00 | 85 | 1016.0 |
| 20260510060614 | 11 | 45 | 4.8 | 14.5 | 0.00 | 0.00 | 0.00 | 85 | 1016.0 |
| 20260510060604 | 11 | 46 | 4.8 | 14.5 | 0.00 | 0.00 | 0.00 | 85 | 1016.0 |
| 20260510060503 | 11 | 45 | 4.8 | 14.5 | 0.00 | 0.00 | 0.00 | 85 | 1016.0 |
| 20260510060303 | 11 | 53 | 4.8 | 14.5 | 0.00 | 0.00 | 0.00 | 85 | 1016.0 |
| 20260510060203 | 11 | 59 | 4.8 | 14.5 | 0.00 | 0.00 | 0.00 | 85 | 1016.1 |
| 20260510060003 | 11 | 280 | 4.8 | 12.9 | 0.00 | 0.00 | 0.00 | 85 | 1016.1 |
| 20260510055904 | 11 | 198 | 4.8 | 12.9 | 0.00 | 0.00 | 0.00 | 85 | 1016.1 |
| 20260510055813 | 11 | 198 | 4.8 | 12.9 | 0.00 | 0.00 | 0.00 | 85 | 1016.1 |
| 20260510055803 | 11 | 243 | 4.8 | 12.9 | 0.00 | 0.00 | 0.00 | 86 | 1015.9 |
| 20260510055716 | 11 | 243 | 4.8 | 12.9 | 0.00 | 0.00 | 0.00 | 86 | 1015.9 |
| 20260510055703 | 11 | 242 | 4.8 | 12.9 | 0.00 | 0.00 | 0.00 | 86 | 1016.1 |
| 20260510055513 | 11 | 201 | 4.8 | 12.9 | 0.00 | 0.00 | 0.00 | 85 | 1016.0 |
| 20260510055417 | 11 | 234 | 4.8 | 12.9 | 0.00 | 0.00 | 0.00 | 85 | 1016.1 |
| 20260510055403 | 11 | 248 | 4.8 | 12.9 | 0.00 | 0.00 | 0.00 | 85 | 1016.1 |
| 20260510055103 | 11 | 251 | 4.8 | 14.5 | 0.00 | 0.00 | 0.00 | 86 | 1016.2 |
| 20260510055003 | 11 | 253 | 4.8 | 14.5 | 0.00 | 0.00 | 0.00 | 86 | 1016.0 |
| 20260510054903 | 11 | 270 | 4.8 | 14.5 | 0.00 | 0.00 | 0.00 | 86 | 1016.1 |
| 20260510054813 | 11 | 270 | 4.8 | 14.5 | 0.00 | 0.00 | 0.00 | 86 | 1016.1 |
| 20260510054803 | 11 | 265 | 4.8 | 14.5 | 0.00 | 0.00 | 0.00 | 86 | 1016.1 |
| 20260510054703 | 11 | 268 | 4.8 | 14.5 | 0.00 | 0.00 | 0.00 | 86 | 1016.3 |
| 20260510054503 | 11 | 221 | 4.8 | 14.5 | 0.00 | 0.00 | 0.00 | 86 | 1016.2 |
| 20260510054413 | 11 | 221 | 4.8 | 14.5 | 0.00 | 0.00 | 0.00 | 86 | 1016.2 |
| 20260510054403 | 11 | 208 | 4.8 | 14.5 | 0.00 | 0.00 | 0.00 | 86 | 1016.2 |
| 20260510054303 | 11 | 221 | 4.8 | 14.5 | 0.00 | 0.00 | 0.00 | 86 | 1016.1 |
| 20260510054114 | 11 | 193 | 4.8 | 14.5 | 0.00 | 0.00 | 0.00 | 86 | 1016.0 |
| 20260510054103 | 11 | 188 | 4.8 | 14.5 | 0.00 | 0.00 | 0.00 | 87 | 1016.2 |
| 20260510054012 | 11 | 188 | 4.8 | 14.5 | 0.00 | 0.00 | 0.00 | 87 | 1016.2 |
| 20260510054003 | 11 | 120 | 4.8 | 14.5 | 0.00 | 0.00 | 0.00 | 87 | 1016.2 |
| 20260510053916 | 11 | 120 | 4.8 | 14.5 | 0.00 | 0.00 | 0.00 | 87 | 1016.2 |
| 20260510053617 | 11 | 182 | 3.2 | 14.5 | 0.00 | 0.00 | 0.00 | 87 | 1016.2 |
| 20260510053603 | 11 | 268 | 3.2 | 14.5 | 0.00 | 0.00 | 0.00 | 87 | 1016.1 |
| 20260510053504 | 11 | 296 | 3.2 | 14.5 | 0.00 | 0.00 | 0.00 | 87 | 1016.1 |
| 20260510053303 | 11 | 189 | 3.2 | 19.3 | 0.00 | 0.00 | 0.00 | 87 | 1016.2 |
| 20260510053203 | 11 | 252 | 3.2 | 19.3 | 0.00 | 0.00 | 0.00 | 87 | 1016.4 |
| 20260510053115 | 11 | 252 | 3.2 | 19.3 | 0.00 | 0.00 | 0.00 | 87 | 1016.4 |
| 20260510053103 | 11 | 165 | 3.2 | 19.3 | 0.00 | 0.00 | 0.00 | 87 | 1016.2 |
| 20260510053003 | 11 | 269 | 3.2 | 19.3 | 0.00 | 0.00 | 0.00 | 87 | 1016.3 |
| 20260510052803 | 11 | 249 | 3.2 | 19.3 | 0.00 | 0.00 | 0.00 | 87 | 1016.2 |
| 20260510052703 | 11 | 228 | 4.8 | 19.3 | 0.00 | 0.00 | 0.00 | 87 | 1016.4 |
| 20260510052604 | 10 | 226 | 4.8 | 19.3 | 0.00 | 0.00 | 0.00 | 87 | 1016.1 |
| 20260510052503 | 10 | 240 | 4.8 | 19.3 | 0.00 | 0.00 | 0.00 | 87 | 1016.3 |
| 20260510052403 | 10 | 280 | 4.8 | 19.3 | 0.00 | 0.00 | 0.00 | 87 | 1016.3 |
| 20260510052306 | 10 | 305 | 3.2 | 16.1 | 0.00 | 0.00 | 0.00 | 87 | 1016.1 |
| 20260510052203 | 10 | 310 | 4.8 | 12.9 | 0.00 | 0.00 | 0.00 | 87 | 1016.2 |
| 20260510052103 | 10 | 314 | 3.2 | 12.9 | 0.00 | 0.00 | 0.00 | 87 | 1016.1 |
| 20260510052003 | 10 | 341 | 4.8 | 12.9 | 0.00 | 0.00 | 0.00 | 87 | 1016.2 |
| 20260510051903 | 10 | 344 | 3.2 | 12.9 | 0.00 | 0.00 | 0.00 | 87 | 1016.3 |
| 20260510051803 | 10 | 46 | 3.2 | 16.1 | 0.00 | 0.00 | 0.00 | 87 | 1016.2 |
| 20260510051703 | 10 | 340 | 4.8 | 16.1 | 0.00 | 0.00 | 0.00 | 87 | 1016.2 |
| 20260510051603 | 10 | 27 | 3.2 | 16.1 | 0.00 | 0.00 | 0.00 | 87 | 1016.1 |
| 20260510051504 | 10 | 29 | 3.2 | 16.1 | 0.00 | 0.00 | 0.00 | 87 | 1016.3 |
| 20260510051403 | 10 | 26 | 3.2 | 16.1 | 0.00 | 0.00 | 0.00 | 87 | 1016.2 |
| 20260510051303 | 10 | 35 | 3.2 | 16.1 | 0.00 | 0.00 | 0.00 | 87 | 1016.4 |
| 20260510051204 | 10 | 38 | 3.2 | 16.1 | 0.00 | 0.00 | 0.00 | 87 | 1016.2 |
| 20260510051103 | 10 | 12 | 3.2 | 17.7 | 0.00 | 0.00 | 0.00 | 87 | 1016.2 |
| 20260510051015 | 10 | 12 | 3.2 | 17.7 | 0.00 | 0.00 | 0.00 | 87 | 1016.2 |
| 20260510051003 | 10 | 23 | 3.2 | 17.7 | 0.00 | 0.00 | 0.00 | 87 | 1016.3 |
| 20260510050903 | 10 | 28 | 3.2 | 17.7 | 0.00 | 0.00 | 0.00 | 87 | 1016.4 |
| 20260510050817 | 10 | 28 | 3.2 | 17.7 | 0.00 | 0.00 | 0.00 | 87 | 1016.4 |
| 20260510050703 | 10 | 31 | 4.8 | 25.7 | 0.00 | 0.00 | 0.00 | 87 | 1016.1 |
| 20260510050503 | 10 | 23 | 4.8 | 25.7 | 0.00 | 0.00 | 0.00 | 87 | 1016.3 |
| 20260510050404 | 10 | 37 | 4.8 | 25.7 | 0.00 | 0.00 | 0.00 | 87 | 1016.3 |
| 20260510050315 | 10 | 37 | 4.8 | 25.7 | 0.00 | 0.00 | 0.00 | 87 | 1016.3 |
| 20260510050303 | 10 | 35 | 4.8 | 25.7 | 0.00 | 0.00 | 0.00 | 87 | 1016.3 |
| 20260510050203 | 10 | 17 | 4.8 | 25.7 | 0.00 | 0.00 | 0.00 | 87 | 1016.2 |
| 20260510050003 | 10 | 18 | 4.8 | 25.7 | 0.00 | 0.00 | 0.00 | 87 | 1016.4 |
| 20260510045903 | 10 | 9 | 4.8 | 25.7 | 0.00 | 0.00 | 0.00 | 87 | 1016.2 |
| 20260510045803 | 10 | 32 | 4.8 | 25.7 | 0.00 | 0.00 | 0.00 | 87 | 1016.1 |
| 20260510045704 | 10 | 30 | 4.8 | 25.7 | 0.00 | 0.00 | 0.00 | 87 | 1016.3 |
| 20260510045603 | 10 | 16 | 6.4 | 25.7 | 0.00 | 0.00 | 0.00 | 87 | 1016.2 |
| 20260510045504 | 10 | 19 | 6.4 | 16.1 | 0.00 | 0.00 | 0.00 | 87 | 1016.3 |
| 20260510045404 | 10 | 13 | 6.4 | 16.1 | 0.00 | 0.00 | 0.00 | 87 | 1016.2 |
| 20260510045316 | 10 | 13 | 6.4 | 16.1 | 0.00 | 0.00 | 0.00 | 87 | 1016.2 |
| 20260510045306 | 10 | 18 | 6.4 | 16.1 | 0.00 | 0.00 | 0.00 | 87 | 1016.3 |
| 20260510045204 | 11 | 21 | 6.4 | 16.1 | 0.00 | 0.00 | 0.00 | 87 | 1016.0 |
| 20260510045004 | 11 | 29 | 6.4 | 16.1 | 0.00 | 0.00 | 0.00 | 87 | 1016.3 |
| 20260510044903 | 11 | 36 | 4.8 | 16.1 | 0.00 | 0.00 | 0.00 | 87 | 1016.2 |
| 20260510044804 | 11 | 23 | 4.8 | 16.1 | 0.00 | 0.00 | 0.00 | 87 | 1016.3 |
| 20260510044704 | 11 | 13 | 4.8 | 16.1 | 0.00 | 0.00 | 0.00 | 87 | 1016.2 |
| 20260510044603 | 11 | 9 | 4.8 | 16.1 | 0.00 | 0.00 | 0.00 | 87 | 1016.3 |
| 20260510044515 | 11 | 9 | 4.8 | 16.1 | 0.00 | 0.00 | 0.00 | 87 | 1016.3 |
| 20260510044504 | 11 | 14 | 4.8 | 16.1 | 0.00 | 0.00 | 0.00 | 87 | 1016.2 |
| 20260510044414 | 11 | 14 | 4.8 | 16.1 | 0.00 | 0.00 | 0.00 | 87 | 1016.2 |
| 20260510044403 | 11 | 22 | 4.8 | 16.1 | 0.00 | 0.00 | 0.00 | 87 | 1016.2 |
| 20260510044114 | 11 | 48 | 4.8 | 16.1 | 0.00 | 0.00 | 0.00 | 88 | 1016.3 |
| 20260510044103 | 11 | 85 | 4.8 | 16.1 | 0.00 | 0.00 | 0.00 | 88 | 1016.1 |
| 20260510044003 | 11 | 95 | 4.8 | 16.1 | 0.00 | 0.00 | 0.00 | 88 | 1016.1 |
| 20260510043804 | 11 | 66 | 4.8 | 16.1 | 0.00 | 0.00 | 0.00 | 88 | 1016.4 |
| 20260510043714 | 11 | 66 | 4.8 | 16.1 | 0.00 | 0.00 | 0.00 | 88 | 1016.4 |
| 20260510043704 | 11 | 66 | 4.8 | 16.1 | 0.00 | 0.00 | 0.00 | 88 | 1016.2 |
| 20260510043603 | 11 | 101 | 4.8 | 16.1 | 0.00 | 0.00 | 0.00 | 88 | 1016.0 |
| 20260510043403 | 11 | 83 | 4.8 | 16.1 | 0.00 | 0.00 | 0.00 | 88 | 1016.4 |
| 20260510043303 | 11 | 45 | 4.8 | 16.1 | 0.00 | 0.00 | 0.00 | 88 | 1016.2 |
| 20260510043204 | 11 | 60 | 4.8 | 16.1 | 0.00 | 0.00 | 0.00 | 88 | 1016.1 |
| 20260510043103 | 11 | 23 | 4.8 | 16.1 | 0.00 | 0.00 | 0.00 | 88 | 1016.3 |
| 20260510043004 | 11 | 325 | 4.8 | 16.1 | 0.00 | 0.00 | 0.00 | 88 | 1016.2 |
| 20260510042904 | 11 | 234 | 4.8 | 19.3 | 0.00 | 0.00 | 0.00 | 88 | 1016.1 |
| 20260510042803 | 11 | 212 | 4.8 | 19.3 | 0.00 | 0.00 | 0.00 | 88 | 1016.2 |
| 20260510042703 | 11 | 244 | 4.8 | 19.3 | 0.00 | 0.00 | 0.00 | 88 | 1016.1 |
| 20260510042603 | 11 | 273 | 4.8 | 19.3 | 0.00 | 0.00 | 0.00 | 88 | 1016.3 |
| 20260510042503 | 11 | 271 | 4.8 | 19.3 | 0.00 | 0.00 | 0.00 | 88 | 1016.2 |
| 20260510042404 | 11 | 261 | 4.8 | 19.3 | 0.00 | 0.00 | 0.00 | 88 | 1016.1 |
| 20260510042305 | 11 | 258 | 4.8 | 19.3 | 0.00 | 0.00 | 0.00 | 88 | 1016.3 |
| 20260510042203 | 11 | 263 | 4.8 | 19.3 | 0.00 | 0.00 | 0.00 | 88 | 1016.1 |
| 20260510042103 | 11 | 257 | 4.8 | 19.3 | 0.00 | 0.00 | 0.00 | 88 | 1016.1 |
| 20260510042003 | 11 | 283 | 4.8 | 19.3 | 0.00 | 0.00 | 0.00 | 87 | 1016.0 |
| 20260510041903 | 11 | 300 | 4.8 | 19.3 | 0.00 | 0.00 | 0.00 | 87 | 1016.1 |
| 20260510041804 | 11 | 326 | 4.8 | 19.3 | 0.00 | 0.00 | 0.00 | 87 | 1016.1 |
| 20260510041703 | 11 | 333 | 4.8 | 17.7 | 0.00 | 0.00 | 0.00 | 87 | 1015.9 |
| 20260510041603 | 11 | 330 | 4.8 | 17.7 | 0.00 | 0.00 | 0.00 | 87 | 1016.1 |
| 20260510041503 | 11 | 344 | 4.8 | 17.7 | 0.00 | 0.00 | 0.00 | 87 | 1016.1 |
| 20260510041416 | 11 | 344 | 4.8 | 17.7 | 0.00 | 0.00 | 0.00 | 87 | 1016.1 |
| 20260510041404 | 11 | 350 | 4.8 | 17.7 | 0.00 | 0.00 | 0.00 | 87 | 1016.2 |
| 20260510041304 | 11 | 347 | 4.8 | 17.7 | 0.00 | 0.00 | 0.00 | 87 | 1016.3 |
| 20260510041103 | 11 | 337 | 4.8 | 17.7 | 0.00 | 0.00 | 0.00 | 87 | 1016.4 |
| 20260510041003 | 11 | 330 | 4.8 | 17.7 | 0.00 | 0.00 | 0.00 | 87 | 1016.1 |
| 20260510040904 | 11 | 348 | 4.8 | 17.7 | 0.00 | 0.00 | 0.00 | 87 | 1016.1 |
| 20260510040803 | 11 | 332 | 4.8 | 17.7 | 0.00 | 0.00 | 0.00 | 87 | 1016.0 |
| 20260510040704 | 11 | 334 | 4.8 | 17.7 | 0.00 | 0.00 | 0.00 | 87 | 1016.1 |
| 20260510040603 | 11 | 350 | 4.8 | 14.5 | 0.00 | 0.00 | 0.00 | 87 | 1016.3 |
| 20260510040503 | 11 | 347 | 4.8 | 14.5 | 0.00 | 0.00 | 0.00 | 87 | 1016.0 |
| 20260510040412 | 11 | 347 | 4.8 | 14.5 | 0.00 | 0.00 | 0.00 | 87 | 1016.0 |
| 20260510040403 | 11 | 335 | 4.8 | 14.5 | 0.00 | 0.00 | 0.00 | 87 | 1015.9 |
| 20260510040304 | 11 | 345 | 4.8 | 14.5 | 0.00 | 0.00 | 0.00 | 87 | 1016.1 |
| 20260510040003 | 11 | 15 | 4.8 | 14.5 | 0.00 | 0.00 | 0.00 | 87 | 1015.9 |
| 20260510035915 | 11 | 15 | 4.8 | 14.5 | 0.00 | 0.00 | 0.00 | 87 | 1015.9 |
| 20260510035903 | 11 | 339 | 4.8 | 14.5 | 0.00 | 0.00 | 0.00 | 87 | 1016.1 |
| 20260510035814 | 11 | 339 | 4.8 | 14.5 | 0.00 | 0.00 | 0.00 | 87 | 1016.1 |
| 20260510035803 | 11 | 16 | 4.8 | 14.5 | 0.00 | 0.00 | 0.00 | 87 | 1015.9 |
| 20260510035515 | 11 | 261 | 4.8 | 14.5 | 0.00 | 0.00 | 0.00 | 87 | 1016.1 |
| 20260510035504 | 11 | 343 | 4.8 | 12.9 | 0.00 | 0.00 | 0.00 | 87 | 1016.0 |
| 20260510035403 | 11 | 2 | 4.8 | 12.9 | 0.00 | 0.00 | 0.00 | 87 | 1016.0 |
| 20260510035203 | 11 | 70 | 4.8 | 11.3 | 0.00 | 0.00 | 0.00 | 87 | 1016.0 |
| 20260510035103 | 11 | 59 | 4.8 | 11.3 | 0.00 | 0.00 | 0.00 | 87 | 1016.0 |
| 20260510035003 | 11 | 77 | 4.8 | 11.3 | 0.00 | 0.00 | 0.00 | 87 | 1016.1 |
| 20260510034916 | 11 | 77 | 4.8 | 11.3 | 0.00 | 0.00 | 0.00 | 87 | 1016.1 |
| 20260510034904 | 11 | 71 | 4.8 | 16.1 | 0.00 | 0.00 | 0.00 | 87 | 1016.0 |
| 20260510034803 | 11 | 89 | 4.8 | 16.1 | 0.00 | 0.00 | 0.00 | 87 | 1016.2 |
| 20260510034603 | 11 | 104 | 4.8 | 16.1 | 0.00 | 0.00 | 0.00 | 87 | 1016.0 |
| 20260510034503 | 11 | 106 | 4.8 | 16.1 | 0.00 | 0.00 | 0.00 | 87 | 1016.1 |
| 20260510034403 | 11 | 101 | 3.2 | 16.1 | 0.00 | 0.00 | 0.00 | 87 | 1016.1 |
| 20260510034304 | 11 | 113 | 3.2 | 16.1 | 0.00 | 0.00 | 0.00 | 87 | 1016.0 |
| 20260510034204 | 11 | 104 | 3.2 | 16.1 | 0.00 | 0.00 | 0.00 | 87 | 1016.0 |
| 20260510034103 | 11 | 104 | 3.2 | 16.1 | 0.00 | 0.00 | 0.00 | 87 | 1016.0 |
| 20260510034014 | 11 | 104 | 3.2 | 16.1 | 0.00 | 0.00 | 0.00 | 87 | 1016.0 |
| 20260510034004 | 11 | 108 | 3.2 | 16.1 | 0.00 | 0.00 | 0.00 | 87 | 1016.0 |
| 20260510033903 | 11 | 113 | 3.2 | 16.1 | 0.00 | 0.00 | 0.00 | 87 | 1015.9 |
| 20260510033703 | 11 | 126 | 3.2 | 16.1 | 0.00 | 0.00 | 0.00 | 88 | 1015.9 |
| 20260510033603 | 11 | 49 | 3.2 | 16.1 | 0.00 | 0.00 | 0.00 | 87 | 1016.1 |
| 20260510033504 | 11 | 36 | 3.2 | 16.1 | 0.00 | 0.00 | 0.00 | 87 | 1016.2 |
| 20260510033403 | 11 | 9 | 3.2 | 16.1 | 0.00 | 0.00 | 0.00 | 87 | 1016.1 |
| 20260510033303 | 11 | 352 | 3.2 | 16.1 | 0.00 | 0.00 | 0.00 | 87 | 1016.2 |
| 20260510033213 | 11 | 352 | 3.2 | 16.1 | 0.00 | 0.00 | 0.00 | 87 | 1016.2 |
| 20260510033203 | 11 | 349 | 3.2 | 16.1 | 0.00 | 0.00 | 0.00 | 87 | 1016.1 |
| 20260510033103 | 11 | 340 | 3.2 | 16.1 | 0.00 | 0.00 | 0.00 | 87 | 1016.0 |
| 20260510032903 | 11 | 70 | 3.2 | 16.1 | 0.00 | 0.00 | 0.00 | 87 | 1016.3 |
| 20260510032803 | 11 | 79 | 3.2 | 16.1 | 0.00 | 0.00 | 0.00 | 87 | 1016.1 |
| 20260510032715 | 11 | 79 | 3.2 | 16.1 | 0.00 | 0.00 | 0.00 | 87 | 1016.1 |
| 20260510032703 | 11 | 58 | 3.2 | 16.1 | 0.00 | 0.00 | 0.00 | 87 | 1016.2 |
| 20260510032614 | 11 | 58 | 3.2 | 16.1 | 0.00 | 0.00 | 0.00 | 87 | 1016.2 |
| 20260510032603 | 11 | 38 | 4.8 | 16.1 | 0.00 | 0.00 | 0.00 | 87 | 1016.3 |
| 20260510032306 | 11 | 36 | 4.8 | 16.1 | 0.00 | 0.00 | 0.00 | 87 | 1016.1 |
| 20260510032213 | 11 | 36 | 4.8 | 16.1 | 0.00 | 0.00 | 0.00 | 87 | 1016.1 |
| 20260510032203 | 11 | 31 | 4.8 | 16.1 | 0.00 | 0.00 | 0.00 | 87 | 1016.1 |
| 20260510032104 | 11 | 40 | 4.8 | 16.1 | 0.00 | 0.00 | 0.00 | 87 | 1016.2 |
| 20260510031903 | 11 | 17 | 4.8 | 16.1 | 0.00 | 0.00 | 0.00 | 87 | 1016.2 |
| 20260510031803 | 11 | 347 | 4.8 | 14.5 | 0.00 | 0.00 | 0.00 | 87 | 1016.0 |
| 20260510031703 | 11 | 341 | 4.8 | 14.5 | 0.00 | 0.00 | 0.00 | 87 | 1016.0 |
| 20260510031603 | 11 | 309 | 4.8 | 14.5 | 0.00 | 0.00 | 0.00 | 87 | 1016.1 |
| 20260510031503 | 11 | 293 | 4.8 | 14.5 | 0.00 | 0.00 | 0.00 | 87 | 1016.0 |
| 20260510031403 | 11 | 300 | 4.8 | 14.5 | 0.00 | 0.00 | 0.00 | 87 | 1016.3 |
| 20260510031303 | 11 | 322 | 4.8 | 14.5 | 0.00 | 0.00 | 0.00 | 87 | 1016.1 |
| 20260510031203 | 11 | 319 | 4.8 | 14.5 | 0.00 | 0.00 | 0.00 | 87 | 1016.0 |
| 20260510031104 | 11 | 309 | 4.8 | 14.5 | 0.00 | 0.00 | 0.00 | 87 | 1016.1 |
| 20260510031003 | 11 | 304 | 4.8 | 14.5 | 0.00 | 0.00 | 0.00 | 87 | 1016.1 |
| 20260510030903 | 11 | 322 | 4.8 | 14.5 | 0.00 | 0.00 | 0.00 | 87 | 1016.1 |
| 20260510030804 | 11 | 349 | 4.8 | 12.9 | 0.00 | 0.00 | 0.00 | 87 | 1016.2 |
| 20260510030704 | 11 | 10 | 4.8 | 12.9 | 0.00 | 0.00 | 0.00 | 87 | 1015.9 |
| 20260510030616 | 11 | 10 | 4.8 | 12.9 | 0.00 | 0.00 | 0.00 | 87 | 1015.9 |
| 20260510030603 | 11 | 21 | 4.8 | 12.9 | 0.00 | 0.00 | 0.00 | 87 | 1016.1 |
| 20260510030503 | 11 | 37 | 4.8 | 12.9 | 0.00 | 0.00 | 0.00 | 87 | 1016.0 |
| 20260510030304 | 11 | 3 | 4.8 | 12.9 | 0.00 | 0.00 | 0.00 | 87 | 1016.1 |
| 20260510030204 | 11 | 35 | 3.2 | 12.9 | 0.00 | 0.00 | 0.00 | 87 | 1016.0 |
| 20260510030103 | 11 | 355 | 3.2 | 12.9 | 0.00 | 0.00 | 0.00 | 87 | 1016.0 |
| 20260510030004 | 11 | 319 | 3.2 | 12.9 | 0.00 | 0.00 | 0.00 | 86 | 1016.0 |
| 20260510025904 | 11 | 268 | 3.2 | 12.9 | 0.00 | 0.00 | 0.00 | 86 | 1015.9 |
| 20260510025804 | 11 | 163 | 3.2 | 12.9 | 0.00 | 0.00 | 0.00 | 86 | 1016.0 |
| 20260510025703 | 11 | 39 | 3.2 | 12.9 | 0.00 | 0.00 | 0.00 | 86 | 1016.0 |
| 20260510025604 | 11 | 149 | 3.2 | 12.9 | 0.00 | 0.00 | 0.00 | 86 | 1016.1 |
| 20260510025504 | 11 | 213 | 3.2 | 12.9 | 0.00 | 0.00 | 0.00 | 87 | 1016.0 |
| 20260510025403 | 11 | 169 | 3.2 | 11.3 | 0.00 | 0.00 | 0.00 | 87 | 1016.0 |
| 20260510025306 | 11 | 114 | 3.2 | 16.1 | 0.00 | 0.00 | 0.00 | 87 | 1016.1 |
| 20260510025203 | 11 | 169 | 4.8 | 16.1 | 0.00 | 0.00 | 0.00 | 87 | 1016.0 |
| 20260510025103 | 11 | 144 | 3.2 | 16.1 | 0.00 | 0.00 | 0.00 | 87 | 1016.1 |
| 20260510025003 | 11 | 113 | 3.2 | 16.1 | 0.00 | 0.00 | 0.00 | 87 | 1016.2 |
| 20260510024903 | 11 | 25 | 3.2 | 16.1 | 0.00 | 0.00 | 0.00 | 87 | 1016.2 |
| 20260510024821 | 11 | 25 | 3.2 | 16.1 | 0.00 | 0.00 | 0.00 | 87 | 1016.2 |
| 20260510024803 | 11 | 324 | 3.2 | 16.1 | 0.00 | 0.00 | 0.00 | 87 | 1016.0 |
| 20260510024703 | 11 | 300 | 3.2 | 16.1 | 0.00 | 0.00 | 0.00 | 87 | 1016.1 |
| 20260510024516 | 11 | 293 | 3.2 | 16.1 | 0.00 | 0.00 | 0.00 | 87 | 1016.1 |
| 20260510024504 | 11 | 300 | 3.2 | 16.1 | 0.00 | 0.00 | 0.00 | 87 | 1016.2 |
| 20260510024403 | 11 | 332 | 3.2 | 16.1 | 0.00 | 0.00 | 0.00 | 87 | 1016.1 |
| 20260510024204 | 11 | 343 | 3.2 | 16.1 | 0.00 | 0.00 | 0.00 | 87 | 1016.1 |
| 20260510024116 | 11 | 343 | 3.2 | 16.1 | 0.00 | 0.00 | 0.00 | 87 | 1016.1 |
| 20260510024104 | 11 | 344 | 3.2 | 12.9 | 0.00 | 0.00 | 0.00 | 87 | 1016.2 |
| 20260510024003 | 11 | 344 | 3.2 | 12.9 | 0.00 | 0.00 | 0.00 | 87 | 1016.4 |
| 20260510023803 | 11 | 27 | 3.2 | 11.3 | 0.00 | 0.00 | 0.00 | 87 | 1016.1 |
| 20260510023703 | 11 | 5 | 3.2 | 11.3 | 0.00 | 0.00 | 0.00 | 87 | 1016.1 |
| 20260510023604 | 11 | 324 | 3.2 | 11.3 | 0.00 | 0.00 | 0.00 | 87 | 1016.3 |
| 20260510023503 | 11 | 314 | 3.2 | 11.3 | 0.00 | 0.00 | 0.00 | 87 | 1016.4 |
| 20260510023404 | 11 | 345 | 3.2 | 11.3 | 0.00 | 0.00 | 0.00 | 87 | 1016.3 |
| 20260510023303 | 11 | 282 | 3.2 | 11.3 | 0.00 | 0.00 | 0.00 | 86 | 1016.3 |
| 20260510023204 | 11 | 326 | 3.2 | 11.3 | 0.00 | 0.00 | 0.00 | 86 | 1016.1 |
| 20260510023103 | 11 | 320 | 3.2 | 11.3 | 0.00 | 0.00 | 0.00 | 86 | 1016.1 |
| 20260510023003 | 11 | 69 | 3.2 | 12.9 | 0.00 | 0.00 | 0.00 | 86 | 1016.2 |
| 20260510022903 | 11 | 359 | 4.8 | 12.9 | 0.00 | 0.00 | 0.00 | 86 | 1016.1 |
| 20260510022803 | 11 | 47 | 4.8 | 12.9 | 0.00 | 0.00 | 0.00 | 86 | 1016.2 |
| 20260510022703 | 11 | 44 | 4.8 | 12.9 | 0.00 | 0.00 | 0.00 | 86 | 1016.2 |
| 20260510022604 | 11 | 42 | 3.2 | 12.9 | 0.00 | 0.00 | 0.00 | 86 | 1016.2 |
| 20260510022503 | 11 | 23 | 3.2 | 12.9 | 0.00 | 0.00 | 0.00 | 86 | 1016.4 |
| 20260510022403 | 11 | 303 | 3.2 | 12.9 | 0.00 | 0.00 | 0.00 | 86 | 1016.2 |
| 20260510022315 | 11 | 303 | 3.2 | 12.9 | 0.00 | 0.00 | 0.00 | 86 | 1016.2 |
| 20260510022306 | 11 | 309 | 3.2 | 12.9 | 0.00 | 0.00 | 0.00 | 86 | 1016.2 |
| 20260510022203 | 11 | 265 | 3.2 | 12.9 | 0.00 | 0.00 | 0.00 | 86 | 1016.2 |
| 20260510022003 | 11 | 264 | 3.2 | 12.9 | 0.00 | 0.00 | 0.00 | 86 | 1016.2 |
| 20260510021903 | 11 | 253 | 3.2 | 12.9 | 0.00 | 0.00 | 0.00 | 86 | 1016.1 |
| 20260510021813 | 11 | 253 | 3.2 | 12.9 | 0.00 | 0.00 | 0.00 | 86 | 1016.1 |
| 20260510021804 | 11 | 279 | 3.2 | 9.7 | 0.00 | 0.00 | 0.00 | 86 | 1016.1 |
| 20260510021703 | 11 | 288 | 3.2 | 9.7 | 0.00 | 0.00 | 0.00 | 86 | 1016.0 |
| 20260510021504 | 11 | 271 | 3.2 | 9.7 | 0.00 | 0.00 | 0.00 | 85 | 1016.2 |
| 20260510021403 | 11 | 257 | 3.2 | 9.7 | 0.00 | 0.00 | 0.00 | 85 | 1016.1 |
| 20260510021303 | 12 | 253 | 3.2 | 6.4 | 0.00 | 0.00 | 0.00 | 85 | 1016.1 |
| 20260510021203 | 12 | 274 | 3.2 | 9.7 | 0.00 | 0.00 | 0.00 | 85 | 1016.0 |
| 20260510021104 | 12 | 34 | 3.2 | 9.7 | 0.00 | 0.00 | 0.00 | 85 | 1016.3 |
| 20260510021003 | 12 | 58 | 3.2 | 9.7 | 0.00 | 0.00 | 0.00 | 85 | 1016.3 |
| 20260510020903 | 12 | 82 | 3.2 | 9.7 | 0.00 | 0.00 | 0.00 | 85 | 1016.1 |
| 20260510020803 | 12 | 83 | 3.2 | 9.7 | 0.00 | 0.00 | 0.00 | 84 | 1016.1 |
| 20260510020703 | 12 | 85 | 3.2 | 9.7 | 0.00 | 0.00 | 0.00 | 84 | 1016.1 |
| 20260510020603 | 12 | 101 | 3.2 | 9.7 | 0.00 | 0.00 | 0.00 | 84 | 1016.1 |
| 20260510020503 | 12 | 84 | 3.2 | 9.7 | 0.00 | 0.00 | 0.00 | 84 | 1016.1 |
| 20260510020403 | 12 | 74 | 3.2 | 9.7 | 0.00 | 0.00 | 0.00 | 84 | 1016.2 |
| 20260510020303 | 12 | 79 | 1.6 | 9.7 | 0.00 | 0.00 | 0.00 | 84 | 1016.2 |
| 20260510020203 | 12 | 87 | 1.6 | 9.7 | 0.00 | 0.00 | 0.00 | 84 | 1016.2 |
| 20260510020004 | 12 | 69 | 1.6 | 9.7 | 0.00 | 0.00 | 0.00 | 83 | 1016.3 |
| 20260510015903 | 12 | 39 | 1.6 | 9.7 | 0.00 | 0.00 | 0.00 | 83 | 1016.2 |
| 20260510015803 | 12 | 40 | 1.6 | 9.7 | 0.00 | 0.00 | 0.00 | 83 | 1016.1 |
| 20260510015703 | 12 | 65 | 1.6 | 9.7 | 0.00 | 0.00 | 0.00 | 83 | 1016.2 |
| 20260510015603 | 12 | 21 | 1.6 | 9.7 | 0.00 | 0.00 | 0.00 | 83 | 1016.2 |
| 20260510015503 | 12 | 11 | 1.6 | 9.7 | 0.00 | 0.00 | 0.00 | 82 | 1016.3 |
| 20260510015403 | 12 | 313 | 1.6 | 9.7 | 0.00 | 0.00 | 0.00 | 82 | 1016.2 |
| 20260510015306 | 12 | 326 | 1.6 | 9.7 | 0.00 | 0.00 | 0.00 | 82 | 1016.2 |
| 20260510015203 | 12 | 349 | 3.2 | 9.7 | 0.00 | 0.00 | 0.00 | 82 | 1016.3 |
| 20260510015103 | 12 | 16 | 1.6 | 9.7 | 0.00 | 0.00 | 0.00 | 82 | 1016.1 |
| 20260510015003 | 12 | 8 | 3.2 | 11.3 | 0.00 | 0.00 | 0.00 | 82 | 1016.2 |
| 20260510014912 | 12 | 8 | 3.2 | 11.3 | 0.00 | 0.00 | 0.00 | 82 | 1016.2 |
| 20260510014903 | 12 | 77 | 3.2 | 11.3 | 0.00 | 0.00 | 0.00 | 81 | 1016.3 |
| 20260510014816 | 12 | 77 | 3.2 | 11.3 | 0.00 | 0.00 | 0.00 | 81 | 1016.3 |
| 20260510014803 | 12 | 105 | 3.2 | 11.3 | 0.00 | 0.00 | 0.00 | 81 | 1016.4 |
| 20260510014613 | 12 | 85 | 3.2 | 11.3 | 0.00 | 0.00 | 0.00 | 81 | 1016.4 |
| 20260510014503 | 12 | 113 | 3.2 | 12.9 | 0.00 | 0.00 | 0.00 | 80 | 1016.4 |
| 20260510014303 | 12 | 93 | 3.2 | 12.9 | 0.00 | 0.00 | 0.00 | 80 | 1016.4 |
| 20260510014203 | 12 | 95 | 3.2 | 12.9 | 0.00 | 0.00 | 0.00 | 79 | 1016.4 |
| 20260510014103 | 12 | 100 | 3.2 | 12.9 | 0.00 | 0.00 | 0.00 | 79 | 1016.3 |
| 20260510014003 | 12 | 75 | 3.2 | 12.9 | 0.00 | 0.00 | 0.00 | 79 | 1016.2 |
| 20260510013903 | 12 | 34 | 3.2 | 12.9 | 0.00 | 0.00 | 0.00 | 79 | 1016.4 |
| 20260510013803 | 12 | 2 | 3.2 | 12.9 | 0.00 | 0.00 | 0.00 | 79 | 1016.2 |
| 20260510013703 | 12 | 7 | 3.2 | 12.9 | 0.00 | 0.00 | 0.00 | 79 | 1016.3 |
| 20260510013603 | 12 | 357 | 3.2 | 12.9 | 0.00 | 0.00 | 0.00 | 79 | 1016.5 |
| 20260510013513 | 12 | 357 | 3.2 | 12.9 | 0.00 | 0.00 | 0.00 | 79 | 1016.5 |
| 20260510013503 | 12 | 353 | 3.2 | 12.9 | 0.00 | 0.00 | 0.00 | 79 | 1016.4 |
| 20260510013403 | 12 | 359 | 3.2 | 12.9 | 0.00 | 0.00 | 0.00 | 79 | 1016.3 |
| 20260510013213 | 12 | 16 | 3.2 | 11.3 | 0.00 | 0.00 | 0.00 | 79 | 1016.3 |
| 20260510013203 | 12 | 30 | 3.2 | 11.3 | 0.00 | 0.00 | 0.00 | 79 | 1016.6 |
| 20260510013103 | 12 | 19 | 3.2 | 11.3 | 0.00 | 0.00 | 0.00 | 79 | 1016.4 |
| 20260510012903 | 12 | 59 | 3.2 | 11.3 | 0.00 | 0.00 | 0.00 | 79 | 1016.3 |
| 20260510012803 | 12 | 103 | 3.2 | 9.7 | 0.00 | 0.00 | 0.00 | 79 | 1016.3 |
| 20260510012703 | 12 | 100 | 3.2 | 9.7 | 0.00 | 0.00 | 0.00 | 79 | 1016.3 |
| 20260510012615 | 12 | 100 | 3.2 | 9.7 | 0.00 | 0.00 | 0.00 | 79 | 1016.3 |
| 20260510012604 | 12 | 116 | 1.6 | 9.7 | 0.00 | 0.00 | 0.00 | 79 | 1016.4 |
| 20260510012514 | 12 | 116 | 1.6 | 9.7 | 0.00 | 0.00 | 0.00 | 79 | 1016.4 |
| 20260510012503 | 12 | 137 | 1.6 | 9.7 | 0.00 | 0.00 | 0.00 | 79 | 1016.3 |
| 20260510012417 | 12 | 137 | 1.6 | 9.7 | 0.00 | 0.00 | 0.00 | 79 | 1016.3 |
| 20260510012103 | 12 | 125 | 1.6 | 9.7 | 0.00 | 0.00 | 0.00 | 79 | 1016.4 |
| 20260510012004 | 12 | 90 | 1.6 | 9.7 | 0.00 | 0.00 | 0.00 | 79 | 1016.4 |
| 20260510011915 | 12 | 90 | 1.6 | 9.7 | 0.00 | 0.00 | 0.00 | 79 | 1016.4 |
| 20260510011903 | 12 | 138 | 1.6 | 9.7 | 0.00 | 0.00 | 0.00 | 79 | 1016.4 |
| 20260510011803 | 12 | 125 | 3.2 | 9.7 | 0.00 | 0.00 | 0.00 | 79 | 1016.4 |
| 20260510011604 | 12 | 135 | 3.2 | 9.7 | 0.00 | 0.00 | 0.00 | 79 | 1016.4 |
| 20260510011503 | 12 | 120 | 3.2 | 9.7 | 0.00 | 0.00 | 0.00 | 79 | 1016.3 |
| 20260510011403 | 12 | 123 | 3.2 | 9.7 | 0.00 | 0.00 | 0.00 | 79 | 1016.2 |
| 20260510011304 | 12 | 114 | 3.2 | 9.7 | 0.00 | 0.00 | 0.00 | 79 | 1016.3 |
| 20260510011203 | 12 | 112 | 3.2 | 9.7 | 0.00 | 0.00 | 0.00 | 79 | 1016.4 |
| 20260510011103 | 12 | 109 | 3.2 | 9.7 | 0.00 | 0.00 | 0.00 | 79 | 1016.5 |
| 20260510011003 | 12 | 105 | 3.2 | 9.7 | 0.00 | 0.00 | 0.00 | 79 | 1016.4 |
| 20260510010916 | 12 | 105 | 3.2 | 9.7 | 0.00 | 0.00 | 0.00 | 79 | 1016.4 |
| 20260510010903 | 12 | 92 | 3.2 | 9.7 | 0.00 | 0.00 | 0.00 | 79 | 1016.4 |
| 20260510010803 | 12 | 86 | 3.2 | 9.7 | 0.00 | 0.00 | 0.00 | 79 | 1016.5 |
| 20260510010603 | 12 | 83 | 3.2 | 9.7 | 0.00 | 0.00 | 0.00 | 80 | 1016.4 |
| 20260510010503 | 12 | 79 | 3.2 | 9.7 | 0.00 | 0.00 | 0.00 | 79 | 1016.5 |
| 20260510010403 | 12 | 86 | 3.2 | 9.7 | 0.00 | 0.00 | 0.00 | 79 | 1016.4 |
| 20260510010313 | 12 | 86 | 3.2 | 9.7 | 0.00 | 0.00 | 0.00 | 79 | 1016.4 |
| 20260510010303 | 12 | 77 | 3.2 | 6.4 | 0.00 | 0.00 | 0.00 | 79 | 1016.4 |
| 20260510010203 | 12 | 80 | 3.2 | 6.4 | 0.00 | 0.00 | 0.00 | 80 | 1016.4 |
| 20260510010014 | 12 | 90 | 3.2 | 9.7 | 0.00 | 0.00 | 0.00 | 80 | 1016.5 |
| 20260510010003 | 12 | 94 | 3.2 | 9.7 | 0.00 | 0.00 | 0.00 | 80 | 1016.6 |
| 20260510005903 | 12 | 96 | 1.6 | 9.7 | 0.00 | 0.00 | 0.00 | 80 | 1016.3 |
| 20260510005703 | 12 | 83 | 3.2 | 9.7 | 0.00 | 0.00 | 0.00 | 79 | 1016.4 |
| 20260510005603 | 12 | 84 | 3.2 | 9.7 | 0.00 | 0.00 | 0.00 | 79 | 1016.2 |
| 20260510005503 | 12 | 93 | 1.6 | 9.7 | 0.00 | 0.00 | 0.00 | 79 | 1016.3 |
| 20260510005403 | 12 | 81 | 3.2 | 9.7 | 0.00 | 0.00 | 0.00 | 79 | 1016.4 |
| 20260510005314 | 12 | 81 | 3.2 | 9.7 | 0.00 | 0.00 | 0.00 | 79 | 1016.4 |
| 20260510005306 | 12 | 76 | 1.6 | 9.7 | 0.00 | 0.00 | 0.00 | 79 | 1016.3 |
| 20260510005203 | 12 | 67 | 1.6 | 9.7 | 0.00 | 0.00 | 0.00 | 79 | 1016.3 |
| 20260510005116 | 12 | 67 | 1.6 | 9.7 | 0.00 | 0.00 | 0.00 | 79 | 1016.3 |
| 20260510005004 | 12 | 61 | 1.6 | 6.4 | 0.00 | 0.00 | 0.00 | 79 | 1016.2 |
| 20260510004803 | 12 | 66 | 3.2 | 6.4 | 0.00 | 0.00 | 0.00 | 79 | 1016.3 |
| 20260510004703 | 12 | 72 | 1.6 | 6.4 | 0.00 | 0.00 | 0.00 | 79 | 1016.3 |
| 20260510004603 | 12 | 85 | 1.6 | 6.4 | 0.00 | 0.00 | 0.00 | 79 | 1016.3 |
| 20260510004503 | 12 | 84 | 1.6 | 6.4 | 0.00 | 0.00 | 0.00 | 79 | 1016.4 |
| 20260510004403 | 12 | 86 | 1.6 | 6.4 | 0.00 | 0.00 | 0.00 | 79 | 1016.4 |
| 20260510004303 | 12 | 91 | 1.6 | 6.4 | 0.00 | 0.00 | 0.00 | 79 | 1016.2 |
| 20260510004204 | 12 | 85 | 1.6 | 11.3 | 0.00 | 0.00 | 0.00 | 79 | 1016.3 |
| 20260510004103 | 12 | 74 | 1.6 | 11.3 | 0.00 | 0.00 | 0.00 | 79 | 1016.3 |
| 20260510004003 | 12 | 91 | 1.6 | 11.3 | 0.00 | 0.00 | 0.00 | 79 | 1016.6 |
| 20260510003903 | 12 | 78 | 1.6 | 11.3 | 0.00 | 0.00 | 0.00 | 78 | 1016.5 |
| 20260510003803 | 12 | 69 | 1.6 | 11.3 | 0.00 | 0.00 | 0.00 | 78 | 1016.4 |
| 20260510003716 | 12 | 69 | 1.6 | 11.3 | 0.00 | 0.00 | 0.00 | 78 | 1016.4 |
| 20260510003703 | 12 | 75 | 3.2 | 11.3 | 0.00 | 0.00 | 0.00 | 78 | 1016.3 |
| 20260510003603 | 12 | 61 | 3.2 | 11.3 | 0.00 | 0.00 | 0.00 | 78 | 1016.4 |
| 20260510003417 | 12 | 50 | 3.2 | 11.3 | 0.00 | 0.00 | 0.00 | 78 | 1016.4 |
| 20260510003403 | 12 | 41 | 3.2 | 12.9 | 0.00 | 0.00 | 0.00 | 78 | 1016.4 |
| 20260510003303 | 12 | 29 | 3.2 | 12.9 | 0.00 | 0.00 | 0.00 | 78 | 1016.4 |
| 20260510003103 | 12 | 18 | 3.2 | 12.9 | 0.00 | 0.00 | 0.00 | 78 | 1016.5 |
| 20260510003016 | 12 | 18 | 3.2 | 12.9 | 0.00 | 0.00 | 0.00 | 78 | 1016.5 |
| 20260510003003 | 12 | 15 | 3.2 | 12.9 | 0.00 | 0.00 | 0.00 | 78 | 1016.4 |
| 20260510002903 | 12 | 19 | 3.2 | 12.9 | 0.00 | 0.00 | 0.00 | 78 | 1016.5 |
| 20260510002706 | 12 | 26 | 4.8 | 12.9 | 0.00 | 0.00 | 0.00 | 78 | 1016.5 |
| 20260510002603 | 12 | 40 | 4.8 | 12.9 | 0.00 | 0.00 | 0.00 | 78 | 1016.5 |
| 20260510002503 | 12 | 60 | 3.2 | 12.9 | 0.00 | 0.00 | 0.00 | 78 | 1016.2 |
| 20260510002403 | 12 | 85 | 3.2 | 12.9 | 0.00 | 0.00 | 0.00 | 78 | 1016.5 |
| 20260510002306 | 12 | 104 | 3.2 | 12.9 | 0.00 | 0.00 | 0.00 | 78 | 1016.4 |
| 20260510002203 | 12 | 129 | 3.2 | 11.3 | 0.00 | 0.00 | 0.00 | 78 | 1016.4 |
| 20260510002114 | 12 | 129 | 3.2 | 11.3 | 0.00 | 0.00 | 0.00 | 78 | 1016.4 |
| 20260510002103 | 12 | 125 | 3.2 | 11.3 | 0.00 | 0.00 | 0.00 | 78 | 1016.4 |
| 20260510002017 | 12 | 125 | 3.2 | 11.3 | 0.00 | 0.00 | 0.00 | 78 | 1016.4 |
| 20260510002003 | 12 | 128 | 3.2 | 11.3 | 0.00 | 0.00 | 0.00 | 78 | 1016.5 |
| 20260510001703 | 12 | 138 | 3.2 | 11.3 | 0.00 | 0.00 | 0.00 | 78 | 1016.5 |
| 20260510001603 | 12 | 147 | 3.2 | 11.3 | 0.00 | 0.00 | 0.00 | 77 | 1016.2 |
| 20260510001503 | 12 | 129 | 3.2 | 11.3 | 0.00 | 0.00 | 0.00 | 77 | 1016.4 |
| 20260510001403 | 12 | 105 | 3.2 | 9.7 | 0.00 | 0.00 | 0.00 | 77 | 1016.5 |
| 20260510001303 | 12 | 84 | 3.2 | 9.7 | 0.00 | 0.00 | 0.00 | 77 | 1016.6 |
| 20260510001203 | 12 | 77 | 3.2 | 9.7 | 0.00 | 0.00 | 0.00 | 77 | 1016.2 |
| 20260510001103 | 12 | 90 | 3.2 | 9.7 | 0.00 | 0.00 | 0.00 | 77 | 1016.4 |
| 20260510001003 | 12 | 87 | 3.2 | 9.7 | 0.00 | 0.00 | 0.00 | 77 | 1016.4 |
| 20260510000903 | 12 | 81 | 3.2 | 9.7 | 0.00 | 0.00 | 0.00 | 77 | 1016.4 |
| 20260510000803 | 12 | 80 | 3.2 | 9.7 | 0.00 | 0.00 | 0.00 | 77 | 1016.4 |
| 20260510000703 | 12 | 95 | 3.2 | 9.7 | 0.00 | 0.00 | 0.00 | 77 | 1016.6 |
| 20260510000603 | 12 | 94 | 3.2 | 9.7 | 0.00 | 0.00 | 0.00 | 77 | 1016.6 |
| 20260510000503 | 12 | 98 | 3.2 | 9.7 | 0.00 | 0.00 | 0.00 | 77 | 1016.6 |
| 20260510000403 | 12 | 94 | 1.6 | 9.7 | 0.00 | 0.00 | 0.00 | 77 | 1016.5 |
| 20260510000304 | 12 | 94 | 3.2 | 6.4 | 0.00 | 0.00 | 0.00 | 77 | 1016.7 |
| 20260510000204 | 12 | 86 | 3.2 | 11.3 | 0.00 | 0.00 | 0.00 | 77 | 1016.6 |
| 20260510000103 | 12 | 93 | 3.2 | 11.3 | 0.00 | 0.00 | 0.00 | 77 | 1016.8 |
| 20260510000003 | 12 | 87 | 3.2 | 11.3 | 0.00 | 0.00 | 0.00 | 77 | 1016.7 |
| 20260509235903 | 12 | 86 | 3.2 | 11.3 | 0.00 | 0.00 | 0.00 | 77 | 1017.0 |
| 20260509235803 | 12 | 86 | 3.2 | 11.3 | 0.00 | 0.00 | 0.00 | 77 | 1016.8 |
| 20260509235703 | 12 | 86 | 3.2 | 11.3 | 0.00 | 0.00 | 0.00 | 77 | 1016.6 |
| 20260509235603 | 12 | 91 | 3.2 | 11.3 | 0.00 | 0.00 | 0.00 | 77 | 1016.7 |
| 20260509235503 | 12 | 87 | 3.2 | 11.3 | 0.00 | 0.00 | 0.00 | 77 | 1016.7 |
| 20260509235403 | 12 | 89 | 3.2 | 11.3 | 0.00 | 0.00 | 0.00 | 77 | 1016.7 |
| 20260509235306 | 12 | 96 | 3.2 | 11.3 | 0.00 | 0.00 | 0.00 | 77 | 1016.6 |
| 20260509235204 | 12 | 95 | 3.2 | 11.3 | 0.00 | 0.00 | 0.00 | 77 | 1016.6 |
| 20260509235103 | 12 | 95 | 3.2 | 11.3 | 0.00 | 0.00 | 0.00 | 77 | 1016.7 |
| 20260509235003 | 12 | 101 | 3.2 | 9.7 | 0.00 | 0.00 | 0.00 | 76 | 1016.7 |
| 20260509234903 | 12 | 100 | 3.2 | 9.7 | 0.00 | 0.00 | 0.00 | 76 | 1016.6 |
| 20260509234803 | 12 | 106 | 3.2 | 9.7 | 0.00 | 0.00 | 0.00 | 76 | 1016.6 |
| 20260509234703 | 12 | 99 | 3.2 | 9.7 | 0.00 | 0.00 | 0.00 | 76 | 1016.6 |
| 20260509234603 | 12 | 91 | 3.2 | 9.7 | 0.00 | 0.00 | 0.00 | 76 | 1016.6 |
| 20260509234503 | 12 | 90 | 3.2 | 9.7 | 0.00 | 0.00 | 0.00 | 76 | 1016.7 |
| 20260509234403 | 12 | 95 | 3.2 | 11.3 | 0.00 | 0.00 | 0.00 | 76 | 1016.8 |
| 20260509234303 | 12 | 99 | 3.2 | 11.3 | 0.00 | 0.00 | 0.00 | 76 | 1016.8 |
| 20260509234203 | 12 | 102 | 3.2 | 11.3 | 0.00 | 0.00 | 0.00 | 76 | 1016.7 |
| 20260509234103 | 12 | 95 | 3.2 | 11.3 | 0.00 | 0.00 | 0.00 | 76 | 1016.7 |
| 20260509234003 | 12 | 91 | 3.2 | 11.3 | 0.00 | 0.00 | 0.00 | 76 | 1016.9 |
| 20260509233903 | 12 | 92 | 3.2 | 11.3 | 0.00 | 0.00 | 0.00 | 76 | 1016.9 |
| 20260509233803 | 12 | 91 | 3.2 | 11.3 | 0.00 | 0.00 | 0.00 | 76 | 1016.9 |
| 20260509233703 | 12 | 91 | 3.2 | 12.9 | 0.00 | 0.00 | 0.00 | 76 | 1016.8 |
| 20260509233603 | 12 | 94 | 3.2 | 12.9 | 0.00 | 0.00 | 0.00 | 76 | 1016.8 |
| 20260509233503 | 12 | 97 | 3.2 | 12.9 | 0.00 | 0.00 | 0.00 | 76 | 1016.7 |
| 20260509233403 | 12 | 90 | 3.2 | 12.9 | 0.00 | 0.00 | 0.00 | 76 | 1016.8 |
| 20260509233303 | 12 | 84 | 3.2 | 12.9 | 0.00 | 0.00 | 0.00 | 76 | 1016.9 |
| 20260509233203 | 12 | 89 | 3.2 | 12.9 | 0.00 | 0.00 | 0.00 | 76 | 1016.9 |
| 20260509233113 | 12 | 89 | 3.2 | 12.9 | 0.00 | 0.00 | 0.00 | 76 | 1016.9 |
| 20260509233103 | 12 | 92 | 3.2 | 12.9 | 0.00 | 0.00 | 0.00 | 76 | 1016.7 |
| 20260509233003 | 12 | 90 | 3.2 | 12.9 | 0.00 | 0.00 | 0.00 | 76 | 1016.9 |
| 20260509232803 | 12 | 95 | 3.2 | 12.9 | 0.00 | 0.00 | 0.00 | 76 | 1017.0 |
| 20260509232703 | 12 | 95 | 3.2 | 12.9 | 0.00 | 0.00 | 0.00 | 76 | 1016.9 |
| 20260509232603 | 12 | 102 | 3.2 | 12.9 | 0.00 | 0.00 | 0.00 | 76 | 1016.9 |
| 20260509232503 | 12 | 95 | 3.2 | 9.7 | 0.00 | 0.00 | 0.00 | 76 | 1016.9 |
| 20260509232403 | 12 | 108 | 3.2 | 9.7 | 0.00 | 0.00 | 0.00 | 76 | 1017.1 |
| 20260509232306 | 12 | 115 | 3.2 | 9.7 | 0.00 | 0.00 | 0.00 | 76 | 1017.0 |
| 20260509232203 | 12 | 101 | 3.2 | 9.7 | 0.00 | 0.00 | 0.00 | 76 | 1017.0 |
| 20260509232103 | 12 | 96 | 3.2 | 6.4 | 0.00 | 0.00 | 0.00 | 76 | 1016.9 |
| 20260509232003 | 12 | 115 | 3.2 | 6.4 | 0.00 | 0.00 | 0.00 | 76 | 1017.0 |
| 20260509231903 | 12 | 130 | 3.2 | 6.4 | 0.00 | 0.00 | 0.00 | 76 | 1016.7 |
| 20260509231803 | 12 | 123 | 3.2 | 9.7 | 0.00 | 0.00 | 0.00 | 76 | 1016.8 |
| 20260509231714 | 12 | 123 | 3.2 | 9.7 | 0.00 | 0.00 | 0.00 | 76 | 1016.8 |
| 20260509231703 | 12 | 121 | 3.2 | 9.7 | 0.00 | 0.00 | 0.00 | 76 | 1016.9 |
| 20260509231603 | 12 | 101 | 3.2 | 9.7 | 0.00 | 0.00 | 0.00 | 76 | 1016.8 |
| 20260509231516 | 12 | 101 | 3.2 | 9.7 | 0.00 | 0.00 | 0.00 | 76 | 1016.8 |
| 20260509231403 | 12 | 85 | 3.2 | 9.7 | 0.00 | 0.00 | 0.00 | 76 | 1017.0 |
| 20260509231203 | 12 | 81 | 3.2 | 9.7 | 0.00 | 0.00 | 0.00 | 77 | 1016.7 |
| 20260509231103 | 12 | 84 | 1.6 | 9.7 | 0.00 | 0.00 | 0.00 | 76 | 1016.8 |
| 20260509231004 | 12 | 84 | 1.6 | 9.7 | 0.00 | 0.00 | 0.00 | 77 | 1016.8 |
| 20260509230903 | 12 | 77 | 1.6 | 9.7 | 0.00 | 0.00 | 0.00 | 77 | 1016.8 |
| 20260509230816 | 12 | 77 | 1.6 | 9.7 | 0.00 | 0.00 | 0.00 | 77 | 1016.8 |
| 20260509230803 | 12 | 73 | 1.6 | 9.7 | 0.00 | 0.00 | 0.00 | 77 | 1017.0 |
| 20260509230703 | 12 | 67 | 1.6 | 9.7 | 0.00 | 0.00 | 0.00 | 77 | 1016.8 |
| 20260509230503 | 12 | 71 | 1.6 | 9.7 | 0.00 | 0.00 | 0.00 | 77 | 1017.1 |
| 20260509230404 | 12 | 83 | 1.6 | 9.7 | 0.00 | 0.00 | 0.00 | 77 | 1016.8 |
| 20260509230303 | 12 | 91 | 1.6 | 9.7 | 0.00 | 0.00 | 0.00 | 77 | 1017.0 |
| 20260509230218 | 12 | 91 | 1.6 | 9.7 | 0.00 | 0.00 | 0.00 | 77 | 1017.0 |
| 20260509230203 | 12 | 93 | 1.6 | 9.7 | 0.00 | 0.00 | 0.00 | 77 | 1016.7 |
| 20260509230103 | 12 | 90 | 1.6 | 9.7 | 0.00 | 0.00 | 0.00 | 77 | 1017.0 |
| 20260509230015 | 12 | 90 | 1.6 | 9.7 | 0.00 | 0.00 | 0.00 | 77 | 1017.0 |
| 20260509225913 | 12 | 59 | 1.6 | 11.3 | 0.00 | 0.00 | 0.00 | 77 | 1016.8 |
| 20260509225903 | 12 | 72 | 1.6 | 11.3 | 0.00 | 0.00 | 0.00 | 77 | 1016.7 |
| 20260509225603 | 12 | 83 | 1.6 | 11.3 | 0.00 | 0.00 | 0.00 | 77 | 1016.7 |
| 20260509225513 | 12 | 83 | 1.6 | 11.3 | 0.00 | 0.00 | 0.00 | 77 | 1016.7 |
| 20260509225503 | 12 | 89 | 1.6 | 11.3 | 0.00 | 0.00 | 0.00 | 77 | 1016.8 |
| 20260509225403 | 12 | 86 | 1.6 | 11.3 | 0.00 | 0.00 | 0.00 | 77 | 1016.8 |
| 20260509225213 | 12 | 91 | 1.6 | 11.3 | 0.00 | 0.00 | 0.00 | 77 | 1016.7 |
| 20260509225203 | 12 | 88 | 3.2 | 11.3 | 0.00 | 0.00 | 0.00 | 77 | 1016.7 |
| 20260509225104 | 12 | 90 | 3.2 | 11.3 | 0.00 | 0.00 | 0.00 | 77 | 1016.7 |
| 20260509224903 | 12 | 96 | 3.2 | 11.3 | 0.00 | 0.00 | 0.00 | 77 | 1016.7 |
| 20260509224803 | 12 | 98 | 3.2 | 9.7 | 0.00 | 0.00 | 0.00 | 77 | 1016.9 |
| 20260509224703 | 12 | 107 | 3.2 | 9.7 | 0.00 | 0.00 | 0.00 | 77 | 1016.8 |
| 20260509224603 | 12 | 115 | 3.2 | 9.7 | 0.00 | 0.00 | 0.00 | 77 | 1016.9 |
| 20260509224504 | 12 | 111 | 3.2 | 9.7 | 0.00 | 0.00 | 0.00 | 77 | 1016.6 |
| 20260509224412 | 12 | 111 | 3.2 | 9.7 | 0.00 | 0.00 | 0.00 | 77 | 1016.6 |
| 20260509224403 | 12 | 111 | 3.2 | 9.7 | 0.00 | 0.00 | 0.00 | 77 | 1016.7 |
| 20260509224303 | 12 | 105 | 3.2 | 9.7 | 0.00 | 0.00 | 0.00 | 77 | 1016.8 |
| 20260509224113 | 12 | 104 | 3.2 | 9.7 | 0.00 | 0.00 | 0.00 | 77 | 1016.8 |
| 20260509224103 | 12 | 102 | 3.2 | 9.7 | 0.00 | 0.00 | 0.00 | 77 | 1016.9 |
| 20260509224003 | 12 | 104 | 1.6 | 9.7 | 0.00 | 0.00 | 0.00 | 77 | 1016.9 |
| 20260509223804 | 12 | 99 | 1.6 | 9.7 | 0.00 | 0.00 | 0.00 | 77 | 1016.9 |
| 20260509223703 | 12 | 95 | 1.6 | 6.4 | 0.00 | 0.00 | 0.00 | 78 | 1016.7 |
| 20260509223603 | 12 | 89 | 1.6 | 9.7 | 0.00 | 0.00 | 0.00 | 78 | 1016.8 |
| 20260509223503 | 12 | 87 | 1.6 | 9.7 | 0.00 | 0.00 | 0.00 | 78 | 1016.9 |
| 20260509223403 | 12 | 96 | 1.6 | 11.3 | 0.00 | 0.00 | 0.00 | 78 | 1016.8 |
| 20260509223303 | 12 | 99 | 1.6 | 11.3 | 0.00 | 0.00 | 0.00 | 77 | 1016.8 |
| 20260509223203 | 12 | 110 | 1.6 | 11.3 | 0.00 | 0.00 | 0.00 | 77 | 1016.9 |
| 20260509223103 | 12 | 115 | 1.6 | 11.3 | 0.00 | 0.00 | 0.00 | 77 | 1016.6 |
| 20260509223003 | 12 | 116 | 1.6 | 11.3 | 0.00 | 0.00 | 0.00 | 78 | 1017.0 |
| 20260509222916 | 12 | 116 | 1.6 | 11.3 | 0.00 | 0.00 | 0.00 | 78 | 1017.0 |
| 20260509222903 | 12 | 124 | 1.6 | 11.3 | 0.00 | 0.00 | 0.00 | 78 | 1016.7 |
| 20260509222803 | 12 | 120 | 1.6 | 11.3 | 0.00 | 0.00 | 0.00 | 78 | 1016.9 |
| 20260509222603 | 12 | 115 | 1.6 | 11.3 | 0.00 | 0.00 | 0.00 | 78 | 1016.7 |
| 20260509222503 | 12 | 125 | 1.6 | 11.3 | 0.00 | 0.00 | 0.00 | 78 | 1016.8 |
| 20260509222414 | 12 | 125 | 1.6 | 11.3 | 0.00 | 0.00 | 0.00 | 78 | 1016.8 |
| 20260509222403 | 12 | 112 | 1.6 | 11.3 | 0.00 | 0.00 | 0.00 | 78 | 1016.6 |
| 20260509222306 | 12 | 115 | 1.6 | 6.4 | 0.00 | 0.00 | 0.00 | 78 | 1017.0 |
| 20260509222103 | 12 | 106 | 1.6 | 6.4 | 0.00 | 0.00 | 0.00 | 78 | 1016.9 |
| 20260509222003 | 12 | 106 | 1.6 | 6.4 | 0.00 | 0.00 | 0.00 | 78 | 1016.9 |
| 20260509221903 | 12 | 109 | 1.6 | 6.4 | 0.00 | 0.00 | 0.00 | 78 | 1016.9 |
| 20260509221803 | 12 | 104 | 1.6 | 6.4 | 0.00 | 0.00 | 0.00 | 78 | 1017.0 |
| 20260509221703 | 12 | 106 | 1.6 | 6.4 | 0.00 | 0.00 | 0.00 | 78 | 1017.0 |
| 20260509221603 | 12 | 102 | 1.6 | 6.4 | 0.00 | 0.00 | 0.00 | 78 | 1016.8 |
| 20260509221503 | 12 | 103 | 1.6 | 6.4 | 0.00 | 0.00 | 0.00 | 78 | 1016.9 |
| 20260509221415 | 12 | 103 | 1.6 | 6.4 | 0.00 | 0.00 | 0.00 | 78 | 1016.9 |
| 20260509221404 | 12 | 91 | 1.6 | 6.4 | 0.00 | 0.00 | 0.00 | 78 | 1016.9 |
| 20260509221303 | 12 | 97 | 1.6 | 6.4 | 0.00 | 0.00 | 0.00 | 78 | 1017.0 |
| 20260509221116 | 12 | 77 | 1.6 | 6.4 | 0.00 | 0.00 | 0.00 | 77 | 1016.9 |
| 20260509221103 | 12 | 75 | 1.6 | 6.4 | 0.00 | 0.00 | 0.00 | 77 | 1016.9 |
| 20260509221014 | 12 | 75 | 1.6 | 6.4 | 0.00 | 0.00 | 0.00 | 77 | 1016.9 |
| 20260509221003 | 12 | 80 | 1.6 | 6.4 | 0.00 | 0.00 | 0.00 | 77 | 1016.8 |
| 20260509220715 | 12 | 54 | 1.6 | 6.4 | 0.00 | 0.00 | 0.00 | 77 | 1016.9 |
| 20260509220703 | 12 | 53 | 1.6 | 6.4 | 0.00 | 0.00 | 0.00 | 77 | 1016.8 |
| 20260509220604 | 12 | 62 | 1.6 | 6.4 | 0.00 | 0.00 | 0.00 | 77 | 1016.9 |
| 20260509220403 | 12 | 58 | 1.6 | 6.4 | 0.00 | 0.00 | 0.00 | 77 | 1016.7 |
| 20260509220303 | 12 | 46 | 1.6 | 6.4 | 0.00 | 0.00 | 0.00 | 76 | 1016.9 |
| 20260509220203 | 12 | 66 | 3.2 | 6.4 | 0.00 | 0.00 | 0.00 | 76 | 1016.9 |
| 20260509220015 | 12 | 60 | 3.2 | 6.4 | 0.00 | 0.00 | 0.00 | 76 | 1016.8 |
| 20260509220004 | 12 | 53 | 3.2 | 6.4 | 0.00 | 0.00 | 0.00 | 76 | 1016.9 |
| 20260509215903 | 12 | 56 | 1.6 | 6.4 | 0.00 | 0.00 | 0.00 | 76 | 1016.8 |
| 20260509215716 | 12 | 75 | 3.2 | 6.4 | 0.00 | 0.00 | 0.00 | 76 | 1016.8 |
| 20260509215704 | 12 | 87 | 3.2 | 9.7 | 0.00 | 0.00 | 0.00 | 76 | 1016.7 |
| 20260509215603 | 12 | 112 | 3.2 | 9.7 | 0.00 | 0.00 | 0.00 | 76 | 1016.8 |
| 20260509215403 | 12 | 116 | 3.2 | 9.7 | 0.00 | 0.00 | 0.00 | 76 | 1016.8 |
| 20260509215316 | 12 | 116 | 3.2 | 9.7 | 0.00 | 0.00 | 0.00 | 76 | 1016.8 |
| 20260509215305 | 12 | 130 | 3.2 | 9.7 | 0.00 | 0.00 | 0.00 | 75 | 1016.6 |
| 20260509215203 | 12 | 131 | 3.2 | 9.7 | 0.00 | 0.00 | 0.00 | 75 | 1016.8 |
| 20260509215003 | 12 | 133 | 3.2 | 9.7 | 0.00 | 0.00 | 0.00 | 75 | 1016.8 |
| 20260509214915 | 12 | 133 | 3.2 | 9.7 | 0.00 | 0.00 | 0.00 | 75 | 1016.8 |
| 20260509214903 | 12 | 126 | 3.2 | 9.7 | 0.00 | 0.00 | 0.00 | 75 | 1016.9 |
| 20260509214814 | 12 | 126 | 3.2 | 9.7 | 0.00 | 0.00 | 0.00 | 75 | 1016.9 |
| 20260509214803 | 12 | 121 | 3.2 | 9.7 | 0.00 | 0.00 | 0.00 | 75 | 1016.7 |
| 20260509214616 | 12 | 115 | 3.2 | 9.7 | 0.00 | 0.00 | 0.00 | 75 | 1016.8 |
| 20260509214504 | 12 | 96 | 1.6 | 6.4 | 0.00 | 0.00 | 0.00 | 75 | 1016.8 |
| 20260509214317 | 12 | 86 | 1.6 | 6.4 | 0.00 | 0.00 | 0.00 | 75 | 1016.9 |
| 20260509214303 | 12 | 68 | 1.6 | 6.4 | 0.00 | 0.00 | 0.00 | 75 | 1016.9 |
| 20260509214203 | 12 | 49 | 1.6 | 4.8 | 0.00 | 0.00 | 0.00 | 74 | 1016.8 |
| 20260509214003 | 12 | 41 | 1.6 | 4.8 | 0.00 | 0.00 | 0.00 | 74 | 1016.8 |
| 20260509213904 | 12 | 35 | 1.6 | 6.4 | 0.00 | 0.00 | 0.00 | 74 | 1016.8 |
| 20260509213803 | 12 | 34 | 1.6 | 6.4 | 0.00 | 0.00 | 0.00 | 74 | 1016.9 |
| 20260509213703 | 12 | 53 | 1.6 | 6.4 | 0.00 | 0.00 | 0.00 | 74 | 1016.9 |
| 20260509213603 | 12 | 51 | 1.6 | 6.4 | 0.00 | 0.00 | 0.00 | 74 | 1017.0 |
| 20260509213503 | 12 | 56 | 1.6 | 6.4 | 0.00 | 0.00 | 0.00 | 74 | 1017.0 |
| 20260509213403 | 12 | 59 | 1.6 | 6.4 | 0.00 | 0.00 | 0.00 | 74 | 1016.9 |
| 20260509213304 | 12 | 62 | 1.6 | 6.4 | 0.00 | 0.00 | 0.00 | 73 | 1016.9 |
| 20260509213203 | 12 | 76 | 1.6 | 6.4 | 0.00 | 0.00 | 0.00 | 73 | 1016.9 |
| 20260509213103 | 12 | 66 | 1.6 | 6.4 | 0.00 | 0.00 | 0.00 | 73 | 1016.9 |
| 20260509213003 | 12 | 82 | 1.6 | 6.4 | 0.00 | 0.00 | 0.00 | 73 | 1016.7 |
| 20260509212903 | 12 | 75 | 1.6 | 6.4 | 0.00 | 0.00 | 0.00 | 73 | 1016.8 |
| 20260509212803 | 12 | 64 | 1.6 | 6.4 | 0.00 | 0.00 | 0.00 | 73 | 1016.9 |
| 20260509212703 | 12 | 70 | 1.6 | 4.8 | 0.00 | 0.00 | 0.00 | 73 | 1016.8 |
| 20260509212603 | 12 | 107 | 1.6 | 4.8 | 0.00 | 0.00 | 0.00 | 73 | 1016.8 |
| 20260509212503 | 12 | 105 | 1.6 | 6.4 | 0.00 | 0.00 | 0.00 | 73 | 1016.8 |
| 20260509212403 | 12 | 13 | 1.6 | 6.4 | 0.00 | 0.00 | 0.00 | 73 | 1016.8 |
| 20260509212313 | 12 | 13 | 1.6 | 6.4 | 0.00 | 0.00 | 0.00 | 73 | 1016.8 |
| 20260509212305 | 12 | 72 | 1.6 | 9.7 | 0.00 | 0.00 | 0.00 | 73 | 1016.9 |
| 20260509212204 | 12 | 85 | 1.6 | 9.7 | 0.00 | 0.00 | 0.00 | 73 | 1016.6 |
| 20260509212116 | 12 | 85 | 1.6 | 9.7 | 0.00 | 0.00 | 0.00 | 73 | 1016.6 |
| 20260509212003 | 12 | 123 | 3.2 | 9.7 | 0.00 | 0.00 | 0.00 | 73 | 1016.6 |
| 20260509211803 | 12 | 127 | 3.2 | 9.7 | 0.00 | 0.00 | 0.00 | 73 | 1016.7 |
| 20260509211703 | 12 | 125 | 3.2 | 9.7 | 0.00 | 0.00 | 0.00 | 73 | 1017.0 |
| 20260509211604 | 12 | 116 | 3.2 | 9.7 | 0.00 | 0.00 | 0.00 | 73 | 1016.9 |
| 20260509211512 | 12 | 116 | 3.2 | 9.7 | 0.00 | 0.00 | 0.00 | 73 | 1016.9 |
| 20260509211504 | 12 | 117 | 3.2 | 9.7 | 0.00 | 0.00 | 0.00 | 73 | 1016.9 |
| 20260509211403 | 12 | 126 | 3.2 | 9.7 | 0.00 | 0.00 | 0.00 | 73 | 1017.0 |
| 20260509211203 | 12 | 123 | 1.6 | 9.7 | 0.00 | 0.00 | 0.00 | 73 | 1016.8 |
| 20260509211103 | 12 | 105 | 3.2 | 9.7 | 0.00 | 0.00 | 0.00 | 73 | 1016.7 |
| 20260509211003 | 12 | 84 | 3.2 | 9.7 | 0.00 | 0.00 | 0.00 | 73 | 1016.7 |
| 20260509210904 | 12 | 88 | 1.6 | 9.7 | 0.00 | 0.00 | 0.00 | 73 | 1016.8 |
| 20260509210803 | 12 | 83 | 1.6 | 11.3 | 0.00 | 0.00 | 0.00 | 73 | 1016.7 |
| 20260509210703 | 12 | 86 | 1.6 | 11.3 | 0.00 | 0.00 | 0.00 | 73 | 1016.8 |
| 20260509210614 | 12 | 86 | 1.6 | 11.3 | 0.00 | 0.00 | 0.00 | 73 | 1016.8 |
| 20260509210603 | 12 | 98 | 3.2 | 11.3 | 0.00 | 0.00 | 0.00 | 73 | 1016.9 |
| 20260509210503 | 12 | 98 | 1.6 | 11.3 | 0.00 | 0.00 | 0.00 | 73 | 1016.8 |
| 20260509210303 | 12 | 93 | 1.6 | 11.3 | 0.00 | 0.00 | 0.00 | 73 | 1016.7 |
| 20260509210204 | 12 | 99 | 1.6 | 11.3 | 0.00 | 0.00 | 0.00 | 74 | 1016.6 |
| 20260509210104 | 12 | 101 | 1.6 | 11.3 | 0.00 | 0.00 | 0.00 | 74 | 1016.7 |
| 20260509210004 | 12 | 99 | 1.6 | 11.3 | 0.00 | 0.00 | 0.00 | 74 | 1016.6 |
| 20260509205903 | 12 | 95 | 1.6 | 11.3 | 0.00 | 0.00 | 0.00 | 74 | 1016.6 |
| 20260509205813 | 12 | 95 | 1.6 | 11.3 | 0.00 | 0.00 | 0.00 | 74 | 1016.6 |
| 20260509205804 | 12 | 82 | 1.6 | 11.3 | 0.00 | 0.00 | 0.00 | 74 | 1016.6 |
| 20260509205717 | 12 | 82 | 1.6 | 11.3 | 0.00 | 0.00 | 0.00 | 74 | 1016.6 |
| 20260509205703 | 12 | 71 | 1.6 | 11.3 | 0.00 | 0.00 | 0.00 | 74 | 1016.6 |
| 20260509205403 | 12 | 66 | 3.2 | 9.7 | 0.00 | 0.00 | 0.00 | 74 | 1016.8 |
| 20260509205307 | 12 | 65 | 3.2 | 9.7 | 0.00 | 0.00 | 0.00 | 74 | 1016.6 |
| 20260509205203 | 12 | 66 | 3.2 | 9.7 | 0.00 | 0.00 | 0.00 | 74 | 1016.4 |
| 20260509205103 | 12 | 67 | 3.2 | 9.7 | 0.00 | 0.00 | 0.00 | 74 | 1016.6 |
| 20260509205004 | 12 | 71 | 3.2 | 9.7 | 0.00 | 0.00 | 0.00 | 74 | 1016.5 |
| 20260509204903 | 12 | 73 | 3.2 | 9.7 | 0.00 | 0.00 | 0.00 | 74 | 1016.6 |
| 20260509204803 | 12 | 78 | 3.2 | 9.7 | 0.00 | 0.00 | 0.00 | 75 | 1016.5 |
| 20260509204704 | 12 | 90 | 3.2 | 9.7 | 0.00 | 0.00 | 0.00 | 75 | 1016.6 |
| 20260509204603 | 12 | 88 | 3.2 | 9.7 | 0.00 | 0.00 | 0.00 | 75 | 1016.5 |
| 20260509204503 | 12 | 77 | 3.2 | 9.7 | 0.00 | 0.00 | 0.00 | 75 | 1016.5 |
| 20260509204403 | 12 | 86 | 1.6 | 6.4 | 0.00 | 0.00 | 0.00 | 75 | 1016.6 |
| 20260509204304 | 12 | 80 | 1.6 | 6.4 | 0.00 | 0.00 | 0.00 | 75 | 1016.7 |
| 20260509204203 | 12 | 75 | 1.6 | 6.4 | 0.00 | 0.00 | 0.00 | 75 | 1016.6 |
| 20260509204103 | 12 | 76 | 1.6 | 6.4 | 0.00 | 0.00 | 0.00 | 75 | 1016.7 |
| 20260509204003 | 12 | 83 | 1.6 | 6.4 | 0.00 | 0.00 | 0.00 | 75 | 1016.7 |
| 20260509203903 | 12 | 77 | 1.6 | 6.4 | 0.00 | 0.00 | 0.00 | 75 | 1016.7 |
| 20260509203803 | 12 | 73 | 1.6 | 6.4 | 0.00 | 0.00 | 0.00 | 75 | 1016.6 |
| 20260509203714 | 12 | 73 | 1.6 | 6.4 | 0.00 | 0.00 | 0.00 | 75 | 1016.6 |
| 20260509203703 | 12 | 62 | 1.6 | 6.4 | 0.00 | 0.00 | 0.00 | 76 | 1016.4 |
| 20260509203604 | 12 | 58 | 1.6 | 6.4 | 0.00 | 0.00 | 0.00 | 76 | 1016.6 |
| 20260509203516 | 12 | 58 | 1.6 | 6.4 | 0.00 | 0.00 | 0.00 | 76 | 1016.6 |
| 20260509203403 | 12 | 77 | 1.6 | 6.4 | 0.00 | 0.00 | 0.00 | 76 | 1016.5 |
| 20260509203203 | 12 | 75 | 1.6 | 9.7 | 0.00 | 0.00 | 0.00 | 76 | 1016.6 |
| 20260509203104 | 12 | 75 | 1.6 | 9.7 | 0.00 | 0.00 | 0.00 | 76 | 1016.7 |
| 20260509203014 | 12 | 75 | 1.6 | 9.7 | 0.00 | 0.00 | 0.00 | 76 | 1016.7 |
| 20260509203004 | 12 | 63 | 1.6 | 9.7 | 0.00 | 0.00 | 0.00 | 76 | 1016.7 |
| 20260509202904 | 12 | 64 | 1.6 | 9.7 | 0.00 | 0.00 | 0.00 | 76 | 1016.7 |
| 20260509202703 | 12 | 69 | 1.6 | 9.7 | 0.00 | 0.00 | 0.00 | 76 | 1016.9 |
| 20260509202613 | 12 | 69 | 1.6 | 9.7 | 0.00 | 0.00 | 0.00 | 76 | 1016.9 |
| 20260509202603 | 12 | 75 | 1.6 | 11.3 | 0.00 | 0.00 | 0.00 | 76 | 1016.6 |
| 20260509202503 | 12 | 71 | 1.6 | 11.3 | 0.00 | 0.00 | 0.00 | 77 | 1016.6 |
| 20260509202314 | 12 | 77 | 1.6 | 11.3 | 0.00 | 0.00 | 0.00 | 77 | 1016.7 |
| 20260509202306 | 12 | 73 | 3.2 | 11.3 | 0.00 | 0.00 | 0.00 | 76 | 1016.6 |
| 20260509202203 | 12 | 78 | 3.2 | 11.3 | 0.00 | 0.00 | 0.00 | 76 | 1016.7 |
| 20260509202004 | 12 | 75 | 3.2 | 11.3 | 0.00 | 0.00 | 0.00 | 76 | 1016.6 |
| 20260509201903 | 12 | 81 | 3.2 | 11.3 | 0.00 | 0.00 | 0.00 | 76 | 1016.6 |
| 20260509201803 | 12 | 88 | 1.6 | 11.3 | 0.00 | 0.00 | 0.00 | 76 | 1016.6 |
| 20260509201703 | 12 | 86 | 1.6 | 11.3 | 0.00 | 0.00 | 0.00 | 76 | 1016.9 |
| 20260509201604 | 12 | 89 | 1.6 | 11.3 | 0.00 | 0.00 | 0.00 | 77 | 1016.9 |
| 20260509201503 | 12 | 101 | 1.6 | 9.7 | 0.00 | 0.00 | 0.00 | 76 | 1016.5 |
| 20260509201404 | 12 | 99 | 1.6 | 9.7 | 0.00 | 0.00 | 0.00 | 76 | 1016.6 |
| 20260509201320 | 12 | 99 | 1.6 | 9.7 | 0.00 | 0.00 | 0.00 | 76 | 1016.6 |
| 20260509201303 | 12 | 130 | 1.6 | 9.7 | 0.00 | 0.00 | 0.00 | 76 | 1016.5 |
| 20260509201214 | 12 | 130 | 1.6 | 9.7 | 0.00 | 0.00 | 0.00 | 76 | 1016.5 |
| 20260509201203 | 12 | 120 | 1.6 | 9.7 | 0.00 | 0.00 | 0.00 | 76 | 1016.5 |
| 20260509201016 | 12 | 141 | 1.6 | 9.7 | 0.00 | 0.00 | 0.00 | 76 | 1016.6 |
| 20260509200903 | 12 | 149 | 1.6 | 9.7 | 0.00 | 0.00 | 0.00 | 76 | 1016.4 |
| 20260509200716 | 12 | 164 | 1.6 | 9.7 | 0.00 | 0.00 | 0.00 | 76 | 1016.5 |
| 20260509200704 | 12 | 170 | 1.6 | 9.7 | 0.00 | 0.00 | 0.00 | 76 | 1016.5 |
| 20260509200603 | 12 | 176 | 1.6 | 9.7 | 0.00 | 0.00 | 0.00 | 76 | 1016.6 |
| 20260509200403 | 12 | 161 | 1.6 | 9.7 | 0.00 | 0.00 | 0.00 | 76 | 1016.5 |
| 20260509200303 | 12 | 143 | 1.6 | 9.7 | 0.00 | 0.00 | 0.00 | 76 | 1016.5 |
| 20260509200215 | 12 | 143 | 1.6 | 9.7 | 0.00 | 0.00 | 0.00 | 76 | 1016.5 |
| 20260509200204 | 12 | 160 | 1.6 | 6.4 | 0.00 | 0.00 | 0.00 | 76 | 1016.4 |
| 20260509200103 | 12 | 152 | 1.6 | 6.4 | 0.00 | 0.00 | 0.00 | 76 | 1016.3 |
| 20260509195903 | 12 | 129 | 1.6 | 6.4 | 0.00 | 0.00 | 0.00 | 76 | 1016.2 |
| 20260509195804 | 12 | 118 | 1.6 | 6.4 | 0.00 | 0.00 | 0.00 | 76 | 1016.4 |
| 20260509195703 | 12 | 117 | 1.6 | 6.4 | 0.00 | 0.00 | 0.00 | 76 | 1016.4 |
| 20260509195603 | 12 | 112 | 1.6 | 6.4 | 0.00 | 0.00 | 0.00 | 76 | 1016.3 |
| 20260509195503 | 12 | 115 | 1.6 | 6.4 | 0.00 | 0.00 | 0.00 | 77 | 1016.3 |
| 20260509195403 | 12 | 118 | 1.6 | 6.4 | 0.00 | 0.00 | 0.00 | 77 | 1016.2 |
| 20260509195306 | 12 | 117 | 1.6 | 6.4 | 0.00 | 0.00 | 0.00 | 77 | 1016.4 |
| 20260509195203 | 12 | 112 | 1.6 | 6.4 | 0.00 | 0.00 | 0.00 | 77 | 1016.5 |
| 20260509195103 | 12 | 110 | 3.2 | 6.4 | 0.00 | 0.00 | 0.00 | 77 | 1016.2 |
| 20260509195013 | 12 | 110 | 3.2 | 6.4 | 0.00 | 0.00 | 0.00 | 77 | 1016.2 |
| 20260509195003 | 12 | 119 | 1.6 | 6.4 | 0.00 | 0.00 | 0.00 | 77 | 1016.4 |
| 20260509194903 | 12 | 118 | 1.6 | 4.8 | 0.00 | 0.00 | 0.00 | 77 | 1016.3 |
| 20260509194703 | 12 | 93 | 1.6 | 6.4 | 0.00 | 0.00 | 0.00 | 77 | 1016.4 |
| 20260509194603 | 12 | 74 | 1.6 | 6.4 | 0.00 | 0.00 | 0.00 | 77 | 1016.3 |
| 20260509194503 | 12 | 34 | 1.6 | 6.4 | 0.00 | 0.00 | 0.00 | 77 | 1016.2 |
| 20260509194403 | 12 | 7 | 1.6 | 6.4 | 0.00 | 0.00 | 0.00 | 77 | 1016.2 |
| 20260509194303 | 12 | 354 | 1.6 | 6.4 | 0.00 | 0.00 | 0.00 | 77 | 1016.3 |
| 20260509194216 | 12 | 354 | 1.6 | 6.4 | 0.00 | 0.00 | 0.00 | 77 | 1016.3 |
| 20260509194203 | 12 | 7 | 1.6 | 6.4 | 0.00 | 0.00 | 0.00 | 77 | 1016.4 |
| 20260509194103 | 12 | 357 | 1.6 | 6.4 | 0.00 | 0.00 | 0.00 | 77 | 1016.3 |
| 20260509193903 | 12 | 360 | 3.2 | 6.4 | 0.00 | 0.00 | 0.00 | 77 | 1016.3 |
| 20260509193803 | 12 | 359 | 1.6 | 6.4 | 0.00 | 0.00 | 0.00 | 77 | 1016.4 |
| 20260509193703 | 12 | 8 | 1.6 | 6.4 | 0.00 | 0.00 | 0.00 | 77 | 1016.4 |
| 20260509193613 | 12 | 8 | 1.6 | 6.4 | 0.00 | 0.00 | 0.00 | 77 | 1016.4 |
| 20260509193603 | 12 | 360 | 1.6 | 6.4 | 0.00 | 0.00 | 0.00 | 77 | 1016.3 |
| 20260509193503 | 13 | 1 | 1.6 | 6.4 | 0.00 | 0.00 | 0.00 | 77 | 1016.1 |
| 20260509193314 | 13 | 2 | 1.6 | 6.4 | 0.00 | 0.00 | 0.00 | 77 | 1016.2 |
| 20260509193304 | 13 | 16 | 1.6 | 6.4 | 0.00 | 0.00 | 0.00 | 77 | 1016.4 |
| 20260509193206 | 13 | 14 | 1.6 | 9.7 | 0.00 | 0.00 | 0.00 | 77 | 1016.4 |
| 20260509193116 | 13 | 14 | 1.6 | 9.7 | 0.00 | 0.00 | 0.00 | 77 | 1016.4 |
| 20260509193003 | 13 | 32 | 1.6 | 9.7 | 0.00 | 0.00 | 0.00 | 76 | 1016.3 |
| 20260509192803 | 13 | 13 | 1.6 | 9.7 | 0.00 | 0.00 | 0.00 | 76 | 1016.4 |
| 20260509192703 | 13 | 360 | 1.6 | 9.7 | 0.00 | 0.00 | 0.00 | 76 | 1016.3 |
| 20260509192603 | 13 | 356 | 3.2 | 11.3 | 0.00 | 0.00 | 0.00 | 76 | 1016.4 |
| 20260509192512 | 13 | 356 | 3.2 | 11.3 | 0.00 | 0.00 | 0.00 | 76 | 1016.4 |
| 20260509192503 | 13 | 355 | 3.2 | 11.3 | 0.00 | 0.00 | 0.00 | 76 | 1016.3 |
| 20260509192403 | 13 | 351 | 3.2 | 11.3 | 0.00 | 0.00 | 0.00 | 76 | 1016.3 |
| 20260509192203 | 13 | 327 | 3.2 | 11.3 | 0.00 | 0.00 | 0.00 | 76 | 1016.2 |
| 20260509192103 | 13 | 324 | 3.2 | 11.3 | 0.00 | 0.00 | 0.00 | 76 | 1016.2 |
| 20260509192003 | 13 | 320 | 3.2 | 11.3 | 0.00 | 0.00 | 0.00 | 76 | 1016.2 |
| 20260509191903 | 13 | 323 | 3.2 | 11.3 | 0.00 | 0.00 | 0.00 | 76 | 1016.3 |
| 20260509191803 | 13 | 329 | 3.2 | 11.3 | 0.00 | 0.00 | 0.00 | 75 | 1016.2 |
| 20260509191703 | 13 | 341 | 3.2 | 11.3 | 0.00 | 0.00 | 0.00 | 75 | 1016.1 |
| 20260509191615 | 13 | 341 | 3.2 | 11.3 | 0.00 | 0.00 | 0.00 | 75 | 1016.1 |
| 20260509191603 | 13 | 337 | 3.2 | 11.3 | 0.00 | 0.00 | 0.00 | 75 | 1016.2 |
| 20260509191503 | 13 | 354 | 1.6 | 11.3 | 0.00 | 0.00 | 0.00 | 75 | 1016.2 |
| 20260509191303 | 13 | 91 | 1.6 | 11.3 | 0.00 | 0.00 | 0.00 | 74 | 1015.9 |
| 20260509191203 | 13 | 94 | 3.2 | 11.3 | 0.00 | 0.00 | 0.00 | 74 | 1016.3 |
| 20260509191103 | 13 | 90 | 3.2 | 11.3 | 0.00 | 0.00 | 0.00 | 74 | 1015.9 |
| 20260509191004 | 13 | 103 | 3.2 | 11.3 | 0.00 | 0.00 | 0.00 | 74 | 1016.2 |
| 20260509190903 | 13 | 99 | 3.2 | 11.3 | 0.00 | 0.00 | 0.00 | 74 | 1016.0 |
| 20260509190813 | 13 | 99 | 3.2 | 11.3 | 0.00 | 0.00 | 0.00 | 74 | 1016.0 |
| 20260509190804 | 13 | 95 | 3.2 | 11.3 | 0.00 | 0.00 | 0.00 | 74 | 1016.0 |
| 20260509190703 | 13 | 89 | 3.2 | 11.3 | 0.00 | 0.00 | 0.00 | 73 | 1016.1 |
| 20260509190616 | 13 | 89 | 3.2 | 11.3 | 0.00 | 0.00 | 0.00 | 73 | 1016.1 |
| 20260509190503 | 13 | 70 | 3.2 | 11.3 | 0.00 | 0.00 | 0.00 | 73 | 1016.0 |
| 20260509190317 | 13 | 73 | 3.2 | 11.3 | 0.00 | 0.00 | 0.00 | 73 | 1016.0 |
| 20260509190303 | 13 | 78 | 3.2 | 11.3 | 0.00 | 0.00 | 0.00 | 72 | 1016.1 |
| 20260509190203 | 13 | 70 | 3.2 | 11.3 | 0.00 | 0.00 | 0.00 | 72 | 1015.9 |
| 20260509190003 | 13 | 60 | 1.6 | 6.4 | 0.00 | 0.00 | 0.00 | 70 | 1016.2 |
| 20260509185903 | 13 | 82 | 1.6 | 6.4 | 0.00 | 0.00 | 0.00 | 70 | 1016.1 |
| 20260509185803 | 13 | 83 | 1.6 | 6.4 | 0.00 | 0.00 | 0.00 | 69 | 1016.2 |
| 20260509185703 | 13 | 89 | 1.6 | 6.4 | 0.00 | 0.00 | 0.00 | 68 | 1016.0 |
| 20260509185603 | 13 | 94 | 1.6 | 6.4 | 0.00 | 0.00 | 0.00 | 67 | 1016.0 |
| 20260509185515 | 13 | 94 | 1.6 | 6.4 | 0.00 | 0.00 | 0.00 | 67 | 1016.0 |
| 20260509185503 | 13 | 103 | 1.6 | 6.4 | 0.00 | 0.00 | 0.00 | 67 | 1016.0 |
| 20260509185403 | 13 | 98 | 1.6 | 6.4 | 0.00 | 0.00 | 0.00 | 66 | 1016.0 |
| 20260509185203 | 13 | 112 | 1.6 | 6.4 | 0.00 | 0.00 | 0.00 | 66 | 1016.1 |
| 20260509185103 | 13 | 101 | 1.6 | 6.4 | 0.00 | 0.00 | 0.00 | 66 | 1016.1 |
| 20260509185003 | 13 | 97 | 1.6 | 6.4 | 0.00 | 0.00 | 0.00 | 66 | 1016.1 |
| 20260509184917 | 13 | 97 | 1.6 | 6.4 | 0.00 | 0.00 | 0.00 | 66 | 1016.1 |
| 20260509184903 | 13 | 130 | 1.6 | 6.4 | 0.00 | 0.00 | 0.00 | 65 | 1016.1 |
| 20260509184803 | 13 | 153 | 1.6 | 6.4 | 0.00 | 0.00 | 0.00 | 65 | 1016.1 |
| 20260509184613 | 13 | 153 | 1.6 | 6.4 | 0.00 | 0.00 | 0.00 | 65 | 1016.0 |
| 20260509184603 | 13 | 165 | 1.6 | 6.4 | 0.00 | 0.00 | 0.00 | 65 | 1016.2 |
| 20260509184503 | 13 | 158 | 1.6 | 6.4 | 0.00 | 0.00 | 0.00 | 65 | 1015.9 |
| 20260509184303 | 13 | 165 | 1.6 | 6.4 | 0.00 | 0.00 | 0.00 | 65 | 1016.3 |
| 20260509184203 | 13 | 155 | 1.6 | 6.4 | 0.00 | 0.00 | 0.00 | 65 | 1016.2 |
| 20260509184103 | 13 | 155 | 1.6 | 6.4 | 0.00 | 0.00 | 0.00 | 65 | 1016.1 |
| 20260509184003 | 13 | 175 | 1.6 | 6.4 | 0.00 | 0.00 | 0.00 | 65 | 1016.2 |
| 20260509183903 | 13 | 159 | 1.6 | 6.4 | 0.00 | 0.00 | 0.00 | 65 | 1016.2 |
| 20260509183803 | 13 | 166 | 1.6 | 6.4 | 0.00 | 0.00 | 0.00 | 65 | 1016.0 |
| 20260509183703 | 13 | 151 | 1.6 | 6.4 | 0.00 | 0.00 | 0.00 | 65 | 1016.1 |
| 20260509183603 | 13 | 157 | 1.6 | 6.4 | 0.00 | 0.00 | 0.00 | 64 | 1016.1 |
| 20260509183512 | 13 | 157 | 1.6 | 6.4 | 0.00 | 0.00 | 0.00 | 64 | 1016.1 |
| 20260509183503 | 13 | 169 | 1.6 | 6.4 | 0.00 | 0.00 | 0.00 | 64 | 1016.1 |
| 20260509183403 | 13 | 197 | 1.6 | 6.4 | 0.00 | 0.00 | 0.00 | 64 | 1016.1 |
| 20260509183213 | 13 | 172 | 1.6 | 6.4 | 0.00 | 0.00 | 0.00 | 64 | 1016.1 |
| 20260509183203 | 13 | 151 | 1.6 | 6.4 | 0.00 | 0.00 | 0.00 | 64 | 1016.0 |
| 20260509183103 | 13 | 104 | 1.6 | 6.4 | 0.00 | 0.00 | 0.00 | 64 | 1016.1 |
| 20260509182903 | 14 | 17 | 1.6 | 6.4 | 0.00 | 0.00 | 0.00 | 64 | 1016.1 |
| 20260509182803 | 14 | 17 | 1.6 | 6.4 | 0.00 | 0.00 | 0.00 | 64 | 1015.9 |
| 20260509182703 | 14 | 12 | 1.6 | 6.4 | 0.00 | 0.00 | 0.00 | 64 | 1016.1 |
| 20260509182604 | 14 | 19 | 1.6 | 6.4 | 0.00 | 0.00 | 0.00 | 64 | 1016.1 |
| 20260509182513 | 14 | 19 | 1.6 | 6.4 | 0.00 | 0.00 | 0.00 | 64 | 1016.1 |
| 20260509182503 | 14 | 40 | 1.6 | 6.4 | 0.00 | 0.00 | 0.00 | 64 | 1016.1 |
| 20260509182403 | 14 | 42 | 1.6 | 6.4 | 0.00 | 0.00 | 0.00 | 64 | 1016.1 |
| 20260509182203 | 14 | 281 | 1.6 | 6.4 | 0.00 | 0.00 | 0.00 | 64 | 1016.1 |
| 20260509182103 | 14 | 218 | 1.6 | 11.3 | 0.00 | 0.00 | 0.00 | 64 | 1016.0 |
| 20260509182003 | 14 | 208 | 1.6 | 11.3 | 0.00 | 0.00 | 0.00 | 64 | 1016.0 |
| 20260509181903 | 14 | 177 | 1.6 | 11.3 | 0.00 | 0.00 | 0.00 | 64 | 1016.0 |
| 20260509181803 | 14 | 176 | 1.6 | 11.3 | 0.00 | 0.00 | 0.00 | 64 | 1015.9 |
| 20260509181717 | 14 | 176 | 1.6 | 11.3 | 0.00 | 0.00 | 0.00 | 64 | 1015.9 |
| 20260509181703 | 14 | 177 | 3.2 | 11.3 | 0.00 | 0.00 | 0.00 | 64 | 1015.9 |
| 20260509181603 | 14 | 174 | 3.2 | 11.3 | 0.00 | 0.00 | 0.00 | 64 | 1015.9 |
| 20260509181403 | 14 | 153 | 3.2 | 11.3 | 0.00 | 0.00 | 0.00 | 64 | 1015.8 |
| 20260509181316 | 14 | 153 | 3.2 | 11.3 | 0.00 | 0.00 | 0.00 | 64 | 1015.8 |
| 20260509181303 | 14 | 130 | 3.2 | 11.3 | 0.00 | 0.00 | 0.00 | 64 | 1015.9 |
| 20260509181203 | 14 | 134 | 3.2 | 11.3 | 0.00 | 0.00 | 0.00 | 64 | 1016.0 |
| 20260509181003 | 14 | 98 | 3.2 | 11.3 | 0.00 | 0.00 | 0.00 | 64 | 1016.0 |
| 20260509180903 | 14 | 79 | 3.2 | 9.7 | 0.00 | 0.00 | 0.00 | 64 | 1016.0 |
| 20260509180804 | 14 | 87 | 3.2 | 9.7 | 0.00 | 0.00 | 0.00 | 65 | 1015.9 |
| 20260509180713 | 14 | 87 | 3.2 | 9.7 | 0.00 | 0.00 | 0.00 | 65 | 1015.9 |
| 20260509180704 | 14 | 89 | 3.2 | 9.7 | 0.00 | 0.00 | 0.00 | 65 | 1015.9 |
| 20260509180603 | 14 | 71 | 3.2 | 9.7 | 0.00 | 0.00 | 0.00 | 65 | 1015.9 |
| 20260509180403 | 14 | 41 | 1.6 | 9.7 | 0.00 | 0.00 | 0.00 | 64 | 1016.0 |
| 20260509180303 | 14 | 23 | 1.6 | 9.7 | 0.00 | 0.00 | 0.00 | 64 | 1016.0 |
| 20260509180203 | 14 | 53 | 1.6 | 14.5 | 0.00 | 0.00 | 0.00 | 64 | 1015.9 |
| 20260509180103 | 14 | 70 | 3.2 | 14.5 | 0.00 | 0.00 | 0.00 | 63 | 1015.9 |
| 20260509180003 | 14 | 87 | 3.2 | 14.5 | 0.00 | 0.00 | 0.00 | 63 | 1016.0 |
| 20260509175903 | 14 | 101 | 3.2 | 14.5 | 0.00 | 0.00 | 0.00 | 63 | 1015.8 |
| 20260509175803 | 14 | 97 | 3.2 | 14.5 | 0.00 | 0.00 | 0.00 | 63 | 1016.0 |
| 20260509175703 | 14 | 83 | 3.2 | 14.5 | 0.00 | 0.00 | 0.00 | 64 | 1016.0 |
| 20260509175604 | 14 | 75 | 3.2 | 14.5 | 0.00 | 0.00 | 0.00 | 63 | 1016.0 |
| 20260509175503 | 14 | 76 | 3.2 | 14.5 | 0.00 | 0.00 | 0.00 | 63 | 1015.9 |
| 20260509175414 | 14 | 76 | 3.2 | 14.5 | 0.00 | 0.00 | 0.00 | 63 | 1015.9 |
| 20260509175403 | 14 | 85 | 3.2 | 14.5 | 0.00 | 0.00 | 0.00 | 64 | 1015.9 |
| 20260509175313 | 14 | 85 | 3.2 | 14.5 | 0.00 | 0.00 | 0.00 | 64 | 1015.9 |
| 20260509175306 | 14 | 75 | 3.2 | 14.5 | 0.00 | 0.00 | 0.00 | 64 | 1016.0 |
| 20260509175003 | 14 | 66 | 3.2 | 11.3 | 0.00 | 0.00 | 0.00 | 65 | 1015.9 |
| 20260509174904 | 14 | 83 | 3.2 | 11.3 | 0.00 | 0.00 | 0.00 | 65 | 1015.8 |
| 20260509174803 | 14 | 50 | 3.2 | 11.3 | 0.00 | 0.00 | 0.00 | 65 | 1015.9 |
| 20260509174704 | 14 | 80 | 3.2 | 11.3 | 0.00 | 0.00 | 0.00 | 65 | 1015.8 |
| 20260509174603 | 14 | 90 | 3.2 | 11.3 | 0.00 | 0.00 | 0.00 | 65 | 1015.9 |
| 20260509174517 | 14 | 90 | 3.2 | 11.3 | 0.00 | 0.00 | 0.00 | 65 | 1015.9 |
| 20260509174503 | 14 | 110 | 3.2 | 11.3 | 0.00 | 0.00 | 0.00 | 65 | 1015.8 |
| 20260509174415 | 14 | 110 | 3.2 | 11.3 | 0.00 | 0.00 | 0.00 | 65 | 1015.8 |
| 20260509174403 | 14 | 114 | 3.2 | 9.7 | 0.00 | 0.00 | 0.00 | 65 | 1015.7 |
| 20260509174104 | 14 | 216 | 3.2 | 9.7 | 0.00 | 0.00 | 0.00 | 65 | 1015.7 |
| 20260509174003 | 14 | 139 | 3.2 | 9.7 | 0.00 | 0.00 | 0.00 | 65 | 1015.9 |
| 20260509173903 | 14 | 81 | 3.2 | 9.7 | 0.00 | 0.00 | 0.00 | 65 | 1015.9 |
| 20260509173803 | 14 | 113 | 3.2 | 14.5 | 0.00 | 0.00 | 0.00 | 65 | 1015.8 |
| 20260509173703 | 14 | 66 | 3.2 | 14.5 | 0.00 | 0.00 | 0.00 | 65 | 1015.7 |
| 20260509173603 | 14 | 84 | 3.2 | 14.5 | 0.00 | 0.00 | 0.00 | 64 | 1015.8 |
| 20260509173504 | 14 | 88 | 3.2 | 14.5 | 0.00 | 0.00 | 0.00 | 64 | 1016.0 |
| 20260509173403 | 14 | 10 | 3.2 | 14.5 | 0.00 | 0.00 | 0.00 | 64 | 1015.7 |
| 20260509173303 | 14 | 20 | 3.2 | 14.5 | 0.00 | 0.00 | 0.00 | 64 | 1015.9 |
| 20260509173203 | 14 | 26 | 3.2 | 14.5 | 0.00 | 0.00 | 0.00 | 64 | 1015.8 |
| 20260509173103 | 14 | 13 | 3.2 | 14.5 | 0.00 | 0.00 | 0.00 | 65 | 1015.7 |
| 20260509173003 | 14 | 24 | 3.2 | 14.5 | 0.00 | 0.00 | 0.00 | 65 | 1015.7 |
| 20260509172904 | 14 | 338 | 3.2 | 14.5 | 0.00 | 0.00 | 0.00 | 65 | 1015.7 |
| 20260509172803 | 14 | 311 | 3.2 | 14.5 | 0.00 | 0.00 | 0.00 | 65 | 1015.8 |
| 20260509172716 | 14 | 311 | 3.2 | 14.5 | 0.00 | 0.00 | 0.00 | 65 | 1015.8 |
| 20260509172703 | 14 | 271 | 3.2 | 14.5 | 0.00 | 0.00 | 0.00 | 65 | 1015.7 |
| 20260509172604 | 14 | 274 | 3.2 | 12.9 | 0.00 | 0.00 | 0.00 | 65 | 1015.9 |
| 20260509172403 | 14 | 268 | 3.2 | 12.9 | 0.00 | 0.00 | 0.00 | 65 | 1015.7 |
| 20260509172306 | 14 | 255 | 3.2 | 12.9 | 0.00 | 0.00 | 0.00 | 65 | 1015.9 |
| 20260509172203 | 15 | 303 | 3.2 | 11.3 | 0.00 | 0.00 | 0.00 | 65 | 1015.8 |
| 20260509172103 | 15 | 333 | 3.2 | 11.3 | 0.00 | 0.00 | 0.00 | 65 | 1015.8 |
| 20260509172004 | 15 | 335 | 3.2 | 11.3 | 0.00 | 0.00 | 0.00 | 65 | 1015.7 |
| 20260509171903 | 15 | 280 | 3.2 | 11.3 | 0.00 | 0.00 | 0.00 | 65 | 1015.7 |
| 20260509171803 | 15 | 128 | 3.2 | 11.3 | 0.00 | 0.00 | 0.00 | 65 | 1016.0 |
| 20260509171704 | 15 | 114 | 3.2 | 11.3 | 0.00 | 0.00 | 0.00 | 65 | 1015.8 |
| 20260509171603 | 15 | 114 | 3.2 | 11.3 | 0.00 | 0.00 | 0.00 | 65 | 1015.8 |
| 20260509171503 | 15 | 129 | 3.2 | 11.3 | 0.00 | 0.00 | 0.00 | 65 | 1015.9 |
| 20260509171303 | 15 | 98 | 3.2 | 11.3 | 0.00 | 0.00 | 0.00 | 64 | 1015.9 |
| 20260509171203 | 15 | 107 | 3.2 | 11.3 | 0.00 | 0.00 | 0.00 | 64 | 1015.8 |
| 20260509171103 | 15 | 112 | 3.2 | 11.3 | 0.00 | 0.00 | 0.00 | 64 | 1015.9 |
| 20260509171012 | 15 | 112 | 3.2 | 11.3 | 0.00 | 0.00 | 0.00 | 64 | 1015.9 |
| 20260509171003 | 15 | 92 | 3.2 | 11.3 | 0.00 | 0.00 | 0.00 | 63 | 1015.9 |
| 20260509170903 | 15 | 96 | 3.2 | 11.3 | 0.00 | 0.00 | 0.00 | 63 | 1015.9 |
| 20260509170815 | 15 | 96 | 3.2 | 11.3 | 0.00 | 0.00 | 0.00 | 63 | 1015.9 |
| 20260509170703 | 15 | 78 | 3.2 | 11.3 | 0.00 | 0.00 | 0.00 | 64 | 1015.9 |
| 20260509170503 | 15 | 58 | 3.2 | 11.3 | 0.00 | 0.00 | 0.00 | 64 | 1016.1 |
| 20260509170403 | 15 | 73 | 3.2 | 11.3 | 0.00 | 0.00 | 0.00 | 64 | 1015.9 |
| 20260509170303 | 15 | 106 | 3.2 | 11.3 | 0.00 | 0.00 | 0.00 | 64 | 1016.1 |
| 20260509170203 | 15 | 107 | 3.2 | 11.3 | 0.00 | 0.00 | 0.00 | 64 | 1015.9 |
| 20260509170003 | 15 | 138 | 3.2 | 9.7 | 0.00 | 0.00 | 0.00 | 64 | 1016.1 |
| 20260509165904 | 15 | 112 | 3.2 | 9.7 | 0.00 | 0.00 | 0.00 | 64 | 1016.2 |
| 20260509165803 | 15 | 118 | 3.2 | 9.7 | 0.00 | 0.00 | 0.00 | 64 | 1016.1 |
| 20260509165714 | 15 | 118 | 3.2 | 9.7 | 0.00 | 0.00 | 0.00 | 64 | 1016.1 |
| 20260509165703 | 15 | 110 | 3.2 | 9.7 | 0.00 | 0.00 | 0.00 | 64 | 1015.9 |
| 20260509165604 | 15 | 107 | 3.2 | 9.7 | 0.00 | 0.00 | 0.00 | 64 | 1016.0 |
| 20260509165403 | 15 | 104 | 3.2 | 9.7 | 0.00 | 0.00 | 0.00 | 65 | 1016.1 |
| 20260509165306 | 15 | 94 | 3.2 | 9.7 | 0.00 | 0.00 | 0.00 | 65 | 1016.1 |
| 20260509165203 | 15 | 75 | 3.2 | 9.7 | 0.00 | 0.00 | 0.00 | 65 | 1016.1 |
| 20260509165116 | 15 | 75 | 3.2 | 9.7 | 0.00 | 0.00 | 0.00 | 65 | 1016.1 |
| 20260509165103 | 15 | 95 | 3.2 | 9.7 | 0.00 | 0.00 | 0.00 | 65 | 1016.1 |
| 20260509165003 | 15 | 78 | 3.2 | 9.7 | 0.00 | 0.00 | 0.00 | 65 | 1016.0 |
| 20260509164803 | 15 | 87 | 3.2 | 9.7 | 0.00 | 0.00 | 0.00 | 66 | 1016.3 |
| 20260509164703 | 15 | 94 | 3.2 | 9.7 | 0.00 | 0.00 | 0.00 | 66 | 1016.1 |
| 20260509164603 | 15 | 182 | 1.6 | 12.9 | 0.00 | 0.00 | 0.00 | 66 | 1016.1 |
| 20260509164503 | 15 | 159 | 3.2 | 12.9 | 0.00 | 0.00 | 0.00 | 66 | 1016.1 |
| 20260509164403 | 15 | 193 | 3.2 | 12.9 | 0.00 | 0.00 | 0.00 | 67 | 1016.0 |
| 20260509164303 | 15 | 183 | 3.2 | 12.9 | 0.00 | 0.00 | 0.00 | 67 | 1016.3 |
| 20260509164203 | 15 | 169 | 3.2 | 12.9 | 0.00 | 0.00 | 0.00 | 67 | 1016.1 |
| 20260509164103 | 15 | 154 | 3.2 | 12.9 | 0.00 | 0.00 | 0.00 | 67 | 1016.2 |
| 20260509164015 | 15 | 154 | 3.2 | 12.9 | 0.00 | 0.00 | 0.00 | 67 | 1016.2 |
| 20260509164003 | 15 | 153 | 3.2 | 12.9 | 0.00 | 0.00 | 0.00 | 67 | 1016.1 |
| 20260509163903 | 15 | 149 | 3.2 | 12.9 | 0.00 | 0.00 | 0.00 | 68 | 1015.9 |
| 20260509163703 | 15 | 138 | 3.2 | 12.9 | 0.00 | 0.00 | 0.00 | 68 | 1016.1 |
| 20260509163603 | 15 | 119 | 3.2 | 12.9 | 0.00 | 0.00 | 0.00 | 67 | 1016.2 |
| 20260509163503 | 15 | 90 | 3.2 | 12.9 | 0.00 | 0.00 | 0.00 | 67 | 1016.0 |
| 20260509163403 | 15 | 79 | 3.2 | 11.3 | 0.00 | 0.00 | 0.00 | 67 | 1016.0 |
| 20260509163305 | 15 | 80 | 3.2 | 11.3 | 0.00 | 0.00 | 0.00 | 68 | 1016.3 |
| 20260509163203 | 15 | 72 | 3.2 | 9.7 | 0.00 | 0.00 | 0.00 | 68 | 1015.9 |
| 20260509163103 | 15 | 77 | 3.2 | 9.7 | 0.00 | 0.00 | 0.00 | 68 | 1016.0 |
| 20260509163004 | 15 | 72 | 3.2 | 9.7 | 0.00 | 0.00 | 0.00 | 68 | 1016.4 |
| 20260509162903 | 15 | 70 | 3.2 | 9.7 | 0.00 | 0.00 | 0.00 | 68 | 1016.1 |
| 20260509162803 | 15 | 75 | 3.2 | 9.7 | 0.00 | 0.00 | 0.00 | 68 | 1016.3 |
| 20260509162703 | 15 | 74 | 3.2 | 11.3 | 0.00 | 0.00 | 0.00 | 68 | 1016.2 |
| 20260509162603 | 15 | 81 | 3.2 | 11.3 | 0.00 | 0.00 | 0.00 | 68 | 1016.2 |
| 20260509162503 | 15 | 84 | 3.2 | 11.3 | 0.00 | 0.00 | 0.00 | 68 | 1016.0 |
| 20260509162404 | 15 | 80 | 3.2 | 11.3 | 0.00 | 0.00 | 0.00 | 69 | 1016.1 |
| 20260509162317 | 15 | 80 | 3.2 | 11.3 | 0.00 | 0.00 | 0.00 | 69 | 1016.1 |
| 20260509162307 | 15 | 65 | 3.2 | 11.3 | 0.00 | 0.00 | 0.00 | 69 | 1016.3 |
| 20260509162215 | 15 | 65 | 3.2 | 11.3 | 0.00 | 0.00 | 0.00 | 69 | 1016.3 |
| 20260509162203 | 15 | 63 | 3.2 | 11.3 | 0.00 | 0.00 | 0.00 | 69 | 1016.2 |
| 20260509162114 | 15 | 63 | 3.2 | 11.3 | 0.00 | 0.00 | 0.00 | 69 | 1016.2 |
| 20260509161916 | 15 | 59 | 3.2 | 11.3 | 0.00 | 0.00 | 0.00 | 68 | 1016.3 |
| 20260509161803 | 15 | 62 | 3.2 | 11.3 | 0.00 | 0.00 | 0.00 | 67 | 1016.2 |
| 20260509161603 | 15 | 66 | 3.2 | 11.3 | 0.00 | 0.00 | 0.00 | 67 | 1016.4 |
| 20260509161503 | 15 | 79 | 3.2 | 11.3 | 0.00 | 0.00 | 0.00 | 66 | 1016.2 |
| 20260509161403 | 16 | 92 | 3.2 | 11.3 | 0.00 | 0.00 | 0.00 | 67 | 1016.5 |
| 20260509161303 | 16 | 109 | 3.2 | 11.3 | 0.00 | 0.00 | 0.00 | 67 | 1016.1 |
| 20260509161203 | 16 | 117 | 3.2 | 11.3 | 0.00 | 0.00 | 0.00 | 67 | 1016.4 |
| 20260509161103 | 16 | 130 | 3.2 | 11.3 | 0.00 | 0.00 | 0.00 | 67 | 1016.3 |
| 20260509161003 | 16 | 135 | 3.2 | 11.3 | 0.00 | 0.00 | 0.00 | 67 | 1016.3 |
| 20260509160903 | 16 | 130 | 3.2 | 11.3 | 0.00 | 0.00 | 0.00 | 67 | 1016.3 |
| 20260509160816 | 16 | 130 | 3.2 | 11.3 | 0.00 | 0.00 | 0.00 | 67 | 1016.3 |
| 20260509160803 | 16 | 130 | 3.2 | 11.3 | 0.00 | 0.00 | 0.00 | 67 | 1016.3 |
| 20260509160714 | 16 | 130 | 3.2 | 11.3 | 0.00 | 0.00 | 0.00 | 67 | 1016.3 |
| 20260509160703 | 15 | 102 | 3.2 | 11.3 | 0.00 | 0.00 | 0.00 | 66 | 1016.4 |
| 20260509160613 | 15 | 102 | 3.2 | 11.3 | 0.00 | 0.00 | 0.00 | 66 | 1016.4 |
| 20260509160303 | 16 | 83 | 3.2 | 11.3 | 0.00 | 0.00 | 0.00 | 66 | 1016.3 |
| 20260509160203 | 16 | 89 | 3.2 | 11.3 | 0.00 | 0.00 | 0.00 | 67 | 1016.3 |
| 20260509160103 | 16 | 83 | 3.2 | 11.3 | 0.00 | 0.00 | 0.00 | 67 | 1016.5 |
| 20260509160004 | 16 | 76 | 3.2 | 11.3 | 0.00 | 0.00 | 0.00 | 67 | 1016.3 |
| 20260509155913 | 16 | 76 | 3.2 | 11.3 | 0.00 | 0.00 | 0.00 | 67 | 1016.3 |
| 20260509155903 | 16 | 72 | 3.2 | 11.3 | 0.00 | 0.00 | 0.00 | 68 | 1016.4 |
| 20260509155803 | 16 | 79 | 3.2 | 11.3 | 0.00 | 0.00 | 0.00 | 68 | 1016.4 |
| 20260509155603 | 16 | 78 | 3.2 | 11.3 | 0.00 | 0.00 | 0.00 | 68 | 1016.5 |
| 20260509155503 | 16 | 81 | 3.2 | 11.3 | 0.00 | 0.00 | 0.00 | 67 | 1016.3 |
| 20260509155404 | 16 | 73 | 4.8 | 11.3 | 0.00 | 0.00 | 0.00 | 67 | 1016.4 |
| 20260509155314 | 16 | 73 | 4.8 | 11.3 | 0.00 | 0.00 | 0.00 | 67 | 1016.4 |
| 20260509155306 | 16 | 69 | 4.8 | 11.3 | 0.00 | 0.00 | 0.00 | 67 | 1016.6 |
| 20260509155204 | 16 | 72 | 4.8 | 11.3 | 0.00 | 0.00 | 0.00 | 67 | 1016.6 |
| 20260509155015 | 16 | 78 | 4.8 | 11.3 | 0.00 | 0.00 | 0.00 | 67 | 1016.6 |
| 20260509155003 | 16 | 82 | 4.8 | 11.3 | 0.00 | 0.00 | 0.00 | 67 | 1016.4 |
| 20260509154903 | 16 | 94 | 4.8 | 11.3 | 0.00 | 0.00 | 0.00 | 66 | 1016.6 |
| 20260509154703 | 16 | 105 | 4.8 | 11.3 | 0.00 | 0.00 | 0.00 | 66 | 1016.6 |
| 20260509154603 | 16 | 105 | 4.8 | 12.9 | 0.00 | 0.00 | 0.00 | 65 | 1016.5 |
| 20260509154503 | 16 | 98 | 4.8 | 12.9 | 0.00 | 0.00 | 0.00 | 65 | 1016.6 |
| 20260509154417 | 16 | 98 | 4.8 | 12.9 | 0.00 | 0.00 | 0.00 | 65 | 1016.6 |
| 20260509154403 | 16 | 106 | 4.8 | 12.9 | 0.00 | 0.00 | 0.00 | 65 | 1016.4 |
| 20260509154303 | 16 | 112 | 4.8 | 12.9 | 0.00 | 0.00 | 0.00 | 65 | 1016.5 |
| 20260509154103 | 16 | 103 | 3.2 | 12.9 | 0.00 | 0.00 | 0.00 | 65 | 1016.5 |
| 20260509154003 | 16 | 103 | 3.2 | 12.9 | 0.00 | 0.00 | 0.00 | 65 | 1016.5 |
| 20260509153903 | 16 | 95 | 3.2 | 12.9 | 0.00 | 0.00 | 0.00 | 65 | 1016.5 |
| 20260509153803 | 16 | 94 | 3.2 | 12.9 | 0.00 | 0.00 | 0.00 | 65 | 1016.5 |
| 20260509153703 | 16 | 94 | 3.2 | 12.9 | 0.00 | 0.00 | 0.00 | 65 | 1016.5 |
| 20260509153604 | 16 | 97 | 3.2 | 12.9 | 0.00 | 0.00 | 0.00 | 65 | 1016.8 |
| 20260509153503 | 16 | 100 | 3.2 | 12.9 | 0.00 | 0.00 | 0.00 | 65 | 1016.7 |
| 20260509153403 | 16 | 106 | 3.2 | 9.7 | 0.00 | 0.00 | 0.00 | 66 | 1016.8 |
| 20260509153303 | 16 | 103 | 3.2 | 9.7 | 0.00 | 0.00 | 0.00 | 67 | 1016.7 |
| 20260509153203 | 16 | 97 | 3.2 | 9.7 | 0.00 | 0.00 | 0.00 | 67 | 1016.8 |
| 20260509153104 | 16 | 101 | 3.2 | 9.7 | 0.00 | 0.00 | 0.00 | 67 | 1016.6 |
| 20260509153004 | 16 | 95 | 3.2 | 9.7 | 0.00 | 0.00 | 0.00 | 67 | 1016.7 |
| 20260509152916 | 16 | 95 | 3.2 | 9.7 | 0.00 | 0.00 | 0.00 | 67 | 1016.7 |
| 20260509152903 | 16 | 103 | 3.2 | 11.3 | 0.00 | 0.00 | 0.00 | 67 | 1016.7 |
| 20260509152803 | 16 | 96 | 3.2 | 11.3 | 0.00 | 0.00 | 0.00 | 66 | 1016.8 |
| 20260509152603 | 16 | 116 | 3.2 | 11.3 | 0.00 | 0.00 | 0.00 | 66 | 1016.8 |
| 20260509152503 | 16 | 133 | 3.2 | 14.5 | 0.00 | 0.00 | 0.00 | 66 | 1016.8 |
| 20260509152403 | 16 | 149 | 3.2 | 14.5 | 0.00 | 0.00 | 0.00 | 66 | 1016.9 |
| 20260509152305 | 16 | 142 | 3.2 | 14.5 | 0.00 | 0.00 | 0.00 | 66 | 1016.7 |
| 20260509152203 | 16 | 137 | 3.2 | 14.5 | 0.00 | 0.00 | 0.00 | 66 | 1016.8 |
| 20260509152103 | 16 | 138 | 3.2 | 14.5 | 0.00 | 0.00 | 0.00 | 66 | 1016.8 |
| 20260509152003 | 16 | 156 | 3.2 | 14.5 | 0.00 | 0.00 | 0.00 | 66 | 1016.7 |
| 20260509151903 | 16 | 160 | 3.2 | 14.5 | 0.00 | 0.00 | 0.00 | 66 | 1016.5 |
| 20260509151815 | 16 | 160 | 3.2 | 14.5 | 0.00 | 0.00 | 0.00 | 66 | 1016.5 |
| 20260509151803 | 16 | 150 | 3.2 | 14.5 | 0.00 | 0.00 | 0.00 | 65 | 1016.6 |
| 20260509151704 | 16 | 143 | 3.2 | 14.5 | 0.00 | 0.00 | 0.00 | 65 | 1016.5 |
| 20260509151503 | 16 | 126 | 3.2 | 14.5 | 0.00 | 0.00 | 0.00 | 64 | 1016.4 |
| 20260509151403 | 16 | 95 | 3.2 | 12.9 | 0.00 | 0.00 | 0.00 | 64 | 1016.8 |
| 20260509151303 | 16 | 67 | 4.8 | 12.9 | 0.00 | 0.00 | 0.00 | 64 | 1016.6 |
| 20260509151204 | 16 | 96 | 3.2 | 11.3 | 0.00 | 0.00 | 0.00 | 65 | 1016.6 |
| 20260509151103 | 16 | 91 | 4.8 | 11.3 | 0.00 | 0.00 | 0.00 | 65 | 1016.8 |
| 20260509151004 | 16 | 81 | 4.8 | 11.3 | 0.00 | 0.00 | 0.00 | 66 | 1016.5 |
| 20260509150903 | 16 | 60 | 4.8 | 11.3 | 0.00 | 0.00 | 0.00 | 66 | 1016.6 |
| 20260509150803 | 16 | 64 | 4.8 | 11.3 | 0.00 | 0.00 | 0.00 | 66 | 1016.5 |
| 20260509150703 | 16 | 69 | 4.8 | 11.3 | 0.00 | 0.00 | 0.00 | 66 | 1016.5 |
| 20260509150603 | 16 | 68 | 4.8 | 12.9 | 0.00 | 0.00 | 0.00 | 66 | 1016.6 |
| 20260509150504 | 16 | 79 | 4.8 | 12.9 | 0.00 | 0.00 | 0.00 | 66 | 1016.6 |
| 20260509150404 | 16 | 67 | 4.8 | 12.9 | 0.00 | 0.00 | 0.00 | 66 | 1016.6 |
| 20260509150314 | 16 | 67 | 4.8 | 12.9 | 0.00 | 0.00 | 0.00 | 66 | 1016.6 |
| 20260509150303 | 16 | 83 | 4.8 | 12.9 | 0.00 | 0.00 | 0.00 | 66 | 1016.5 |
| 20260509150203 | 16 | 84 | 4.8 | 12.9 | 0.00 | 0.00 | 0.00 | 66 | 1016.5 |
| 20260509150003 | 16 | 94 | 4.8 | 12.9 | 0.00 | 0.00 | 0.00 | 65 | 1016.5 |
| 20260509145913 | 16 | 94 | 4.8 | 12.9 | 0.00 | 0.00 | 0.00 | 65 | 1016.5 |
| 20260509145904 | 16 | 106 | 4.8 | 12.9 | 0.00 | 0.00 | 0.00 | 65 | 1016.6 |
| 20260509145803 | 16 | 100 | 4.8 | 12.9 | 0.00 | 0.00 | 0.00 | 66 | 1016.7 |
| 20260509145614 | 16 | 113 | 4.8 | 12.9 | 0.00 | 0.00 | 0.00 | 65 | 1016.5 |
| 20260509145603 | 16 | 106 | 4.8 | 12.9 | 0.00 | 0.00 | 0.00 | 65 | 1016.6 |
| 20260509145504 | 16 | 102 | 4.8 | 12.9 | 0.00 | 0.00 | 0.00 | 65 | 1016.4 |
| 20260509145416 | 16 | 102 | 4.8 | 12.9 | 0.00 | 0.00 | 0.00 | 65 | 1016.4 |
| 20260509145315 | 16 | 127 | 4.8 | 16.1 | 0.00 | 0.00 | 0.00 | 65 | 1016.6 |
| 20260509145306 | 16 | 137 | 4.8 | 16.1 | 0.00 | 0.00 | 0.00 | 65 | 1016.4 |
| 20260509145003 | 16 | 134 | 4.8 | 16.1 | 0.00 | 0.00 | 0.00 | 66 | 1016.5 |
| 20260509144903 | 16 | 129 | 4.8 | 16.1 | 0.00 | 0.00 | 0.00 | 65 | 1016.5 |
| 20260509144804 | 16 | 123 | 4.8 | 16.1 | 0.00 | 0.00 | 0.00 | 66 | 1016.5 |
| 20260509144717 | 16 | 123 | 4.8 | 16.1 | 0.00 | 0.00 | 0.00 | 66 | 1016.5 |
| 20260509144703 | 16 | 115 | 4.8 | 16.1 | 0.00 | 0.00 | 0.00 | 65 | 1016.3 |
| 20260509144604 | 16 | 112 | 4.8 | 16.1 | 0.00 | 0.00 | 0.00 | 65 | 1016.4 |
| 20260509144403 | 16 | 104 | 4.8 | 16.1 | 0.00 | 0.00 | 0.00 | 65 | 1016.3 |
| 20260509144304 | 16 | 89 | 4.8 | 16.1 | 0.00 | 0.00 | 0.00 | 64 | 1016.2 |
| 20260509144203 | 16 | 93 | 4.8 | 12.9 | 0.00 | 0.00 | 0.00 | 64 | 1016.5 |
| 20260509144104 | 16 | 89 | 4.8 | 12.9 | 0.00 | 0.00 | 0.00 | 64 | 1016.4 |
| 20260509144003 | 16 | 94 | 4.8 | 12.9 | 0.00 | 0.00 | 0.00 | 65 | 1016.5 |
| 20260509143903 | 16 | 92 | 4.8 | 14.5 | 0.00 | 0.00 | 0.00 | 65 | 1016.5 |
| 20260509143804 | 16 | 91 | 4.8 | 14.5 | 0.00 | 0.00 | 0.00 | 65 | 1016.7 |
| 20260509143703 | 16 | 89 | 4.8 | 14.5 | 0.00 | 0.00 | 0.00 | 65 | 1016.4 |
| 20260509143604 | 16 | 101 | 4.8 | 14.5 | 0.00 | 0.00 | 0.00 | 65 | 1016.4 |
| 20260509143503 | 16 | 80 | 6.4 | 14.5 | 0.00 | 0.00 | 0.00 | 64 | 1016.5 |
| 20260509143404 | 16 | 77 | 6.4 | 14.5 | 0.00 | 0.00 | 0.00 | 64 | 1016.4 |
| 20260509143304 | 16 | 86 | 6.4 | 14.5 | 0.00 | 0.00 | 0.00 | 65 | 1016.3 |
| 20260509143215 | 16 | 86 | 6.4 | 14.5 | 0.00 | 0.00 | 0.00 | 65 | 1016.3 |
| 20260509143203 | 16 | 85 | 6.4 | 14.5 | 0.00 | 0.00 | 0.00 | 66 | 1016.3 |
| 20260509143103 | 16 | 82 | 6.4 | 14.5 | 0.00 | 0.00 | 0.00 | 66 | 1016.3 |
| 20260509142904 | 16 | 78 | 6.4 | 14.5 | 0.00 | 0.00 | 0.00 | 65 | 1016.5 |
| 20260509142815 | 16 | 78 | 6.4 | 14.5 | 0.00 | 0.00 | 0.00 | 65 | 1016.5 |
| 20260509142803 | 16 | 79 | 6.4 | 14.5 | 0.00 | 0.00 | 0.00 | 66 | 1016.3 |
| 20260509142703 | 16 | 86 | 6.4 | 14.5 | 0.00 | 0.00 | 0.00 | 65 | 1016.4 |
| 20260509142516 | 16 | 85 | 6.4 | 14.5 | 0.00 | 0.00 | 0.00 | 66 | 1016.4 |
| 20260509142504 | 16 | 93 | 6.4 | 14.5 | 0.00 | 0.00 | 0.00 | 66 | 1016.3 |
| 20260509142403 | 16 | 106 | 4.8 | 14.5 | 0.00 | 0.00 | 0.00 | 66 | 1016.3 |
| 20260509142203 | 16 | 99 | 4.8 | 14.5 | 0.00 | 0.00 | 0.00 | 66 | 1016.4 |
| 20260509142103 | 16 | 103 | 4.8 | 14.5 | 0.00 | 0.00 | 0.00 | 66 | 1016.5 |
| 20260509142014 | 16 | 103 | 4.8 | 14.5 | 0.00 | 0.00 | 0.00 | 66 | 1016.5 |
| 20260509142003 | 16 | 102 | 4.8 | 14.5 | 0.00 | 0.00 | 0.00 | 66 | 1016.5 |
| 20260509141903 | 16 | 101 | 4.8 | 14.5 | 0.00 | 0.00 | 0.00 | 66 | 1016.6 |
| 20260509141704 | 16 | 84 | 4.8 | 14.5 | 0.00 | 0.00 | 0.00 | 65 | 1016.5 |
| 20260509141603 | 16 | 77 | 3.2 | 14.5 | 0.00 | 0.00 | 0.00 | 65 | 1016.6 |
| 20260509141503 | 16 | 77 | 3.2 | 14.5 | 0.00 | 0.00 | 0.00 | 65 | 1016.3 |
| 20260509141404 | 16 | 88 | 4.8 | 14.5 | 0.00 | 0.00 | 0.00 | 65 | 1016.4 |
| 20260509141303 | 16 | 129 | 3.2 | 14.5 | 0.00 | 0.00 | 0.00 | 65 | 1016.3 |
| 20260509141203 | 16 | 279 | 3.2 | 12.9 | 0.00 | 0.00 | 0.00 | 66 | 1016.2 |
| 20260509141103 | 16 | 5 | 3.2 | 16.1 | 0.00 | 0.00 | 0.00 | 66 | 1016.3 |
| 20260509141004 | 16 | 358 | 3.2 | 16.1 | 0.00 | 0.00 | 0.00 | 66 | 1016.5 |
| 20260509140903 | 16 | 307 | 3.2 | 16.1 | 0.00 | 0.00 | 0.00 | 67 | 1016.2 |
| 20260509140803 | 16 | 295 | 3.2 | 16.1 | 0.00 | 0.00 | 0.00 | 67 | 1016.4 |
| 20260509140703 | 16 | 338 | 3.2 | 16.1 | 0.00 | 0.00 | 0.00 | 67 | 1016.4 |
| 20260509140603 | 16 | 7 | 3.2 | 16.1 | 0.00 | 0.00 | 0.00 | 67 | 1016.4 |
| 20260509140503 | 16 | 14 | 3.2 | 16.1 | 0.00 | 0.00 | 0.00 | 67 | 1016.4 |
| 20260509140403 | 16 | 19 | 3.2 | 16.1 | 0.00 | 0.00 | 0.00 | 67 | 1016.4 |
| 20260509140315 | 16 | 19 | 3.2 | 16.1 | 0.00 | 0.00 | 0.00 | 67 | 1016.4 |
| 20260509140303 | 16 | 20 | 3.2 | 16.1 | 0.00 | 0.00 | 0.00 | 67 | 1016.3 |
| 20260509140203 | 16 | 28 | 3.2 | 16.1 | 0.00 | 0.00 | 0.00 | 67 | 1016.3 |
| 20260509140003 | 16 | 63 | 3.2 | 16.1 | 0.00 | 0.00 | 0.00 | 67 | 1016.3 |
| 20260509135914 | 16 | 63 | 3.2 | 16.1 | 0.00 | 0.00 | 0.00 | 67 | 1016.3 |
| 20260509135904 | 16 | 54 | 3.2 | 11.3 | 0.00 | 0.00 | 0.00 | 67 | 1016.4 |
| 20260509135803 | 16 | 62 | 3.2 | 11.3 | 0.00 | 0.00 | 0.00 | 67 | 1016.4 |
| 20260509135603 | 16 | 61 | 3.2 | 11.3 | 0.00 | 0.00 | 0.00 | 67 | 1016.5 |
| 20260509135503 | 16 | 83 | 4.8 | 11.3 | 0.00 | 0.00 | 0.00 | 67 | 1016.4 |
| 20260509135403 | 16 | 99 | 4.8 | 11.3 | 0.00 | 0.00 | 0.00 | 67 | 1016.4 |
| 20260509135316 | 16 | 99 | 4.8 | 11.3 | 0.00 | 0.00 | 0.00 | 67 | 1016.4 |
| 20260509135305 | 16 | 103 | 4.8 | 11.3 | 0.00 | 0.00 | 0.00 | 68 | 1016.4 |
| 20260509135203 | 16 | 85 | 4.8 | 11.3 | 0.00 | 0.00 | 0.00 | 68 | 1016.3 |
| 20260509135003 | 16 | 61 | 4.8 | 11.3 | 0.00 | 0.00 | 0.00 | 67 | 1016.4 |
| 20260509134903 | 16 | 125 | 4.8 | 14.5 | 0.00 | 0.00 | 0.00 | 67 | 1016.2 |
| 20260509134803 | 16 | 121 | 4.8 | 14.5 | 0.00 | 0.00 | 0.00 | 67 | 1016.4 |
| 20260509134703 | 16 | 132 | 4.8 | 14.5 | 0.00 | 0.00 | 0.00 | 67 | 1016.2 |
| 20260509134603 | 16 | 111 | 4.8 | 14.5 | 0.00 | 0.00 | 0.00 | 67 | 1016.5 |
| 20260509134514 | 16 | 111 | 4.8 | 14.5 | 0.00 | 0.00 | 0.00 | 67 | 1016.5 |
| 20260509134503 | 16 | 90 | 4.8 | 14.5 | 0.00 | 0.00 | 0.00 | 68 | 1016.5 |
| 20260509134403 | 16 | 96 | 4.8 | 14.5 | 0.00 | 0.00 | 0.00 | 68 | 1016.3 |
| 20260509134203 | 16 | 107 | 4.8 | 14.5 | 0.00 | 0.00 | 0.00 | 68 | 1016.4 |
| 20260509134103 | 16 | 109 | 4.8 | 14.5 | 0.00 | 0.00 | 0.00 | 67 | 1016.4 |
| 20260509134003 | 16 | 113 | 4.8 | 14.5 | 0.00 | 0.00 | 0.00 | 67 | 1016.4 |
| 20260509133903 | 16 | 103 | 4.8 | 14.5 | 0.00 | 0.00 | 0.00 | 66 | 1016.4 |
| 20260509133804 | 16 | 101 | 4.8 | 11.3 | 0.00 | 0.00 | 0.00 | 68 | 1016.6 |
| 20260509133703 | 16 | 94 | 4.8 | 11.3 | 0.00 | 0.00 | 0.00 | 67 | 1016.5 |
| 20260509133603 | 16 | 106 | 4.8 | 11.3 | 0.00 | 0.00 | 0.00 | 67 | 1016.5 |
| 20260509133504 | 16 | 108 | 4.8 | 11.3 | 0.00 | 0.00 | 0.00 | 67 | 1016.3 |
| 20260509133403 | 16 | 107 | 4.8 | 11.3 | 0.00 | 0.00 | 0.00 | 67 | 1016.5 |
| 20260509133303 | 16 | 97 | 4.8 | 11.3 | 0.00 | 0.00 | 0.00 | 67 | 1016.6 |
| 20260509133203 | 16 | 120 | 4.8 | 11.3 | 0.00 | 0.00 | 0.00 | 67 | 1016.5 |
| 20260509133103 | 16 | 132 | 4.8 | 11.3 | 0.00 | 0.00 | 0.00 | 66 | 1016.4 |
| 20260509133003 | 16 | 114 | 4.8 | 11.3 | 0.00 | 0.00 | 0.00 | 66 | 1016.5 |
| 20260509132903 | 16 | 134 | 4.8 | 11.3 | 0.00 | 0.00 | 0.00 | 67 | 1016.4 |
| 20260509132804 | 16 | 131 | 4.8 | 11.3 | 0.00 | 0.00 | 0.00 | 67 | 1016.4 |
| 20260509132703 | 16 | 196 | 4.8 | 11.3 | 0.00 | 0.00 | 0.00 | 66 | 1016.5 |
| 20260509132603 | 16 | 181 | 4.8 | 11.3 | 0.00 | 0.00 | 0.00 | 66 | 1016.4 |
| 20260509132504 | 16 | 179 | 3.2 | 11.3 | 0.00 | 0.00 | 0.00 | 66 | 1016.5 |
| 20260509132404 | 16 | 147 | 3.2 | 11.3 | 0.00 | 0.00 | 0.00 | 65 | 1016.4 |
| 20260509132306 | 16 | 133 | 3.2 | 11.3 | 0.00 | 0.00 | 0.00 | 65 | 1016.5 |
| 20260509132203 | 16 | 138 | 4.8 | 11.3 | 0.00 | 0.00 | 0.00 | 65 | 1016.7 |
| 20260509132115 | 16 | 138 | 4.8 | 11.3 | 0.00 | 0.00 | 0.00 | 65 | 1016.7 |
| 20260509132103 | 16 | 130 | 3.2 | 11.3 | 0.00 | 0.00 | 0.00 | 66 | 1016.5 |
| 20260509132003 | 16 | 135 | 3.2 | 11.3 | 0.00 | 0.00 | 0.00 | 65 | 1016.6 |
| 20260509131816 | 16 | 130 | 3.2 | 11.3 | 0.00 | 0.00 | 0.00 | 64 | 1016.6 |
| 20260509131804 | 17 | 139 | 3.2 | 11.3 | 0.00 | 0.00 | 0.00 | 64 | 1016.6 |
| 20260509131703 | 17 | 119 | 4.8 | 11.3 | 0.00 | 0.00 | 0.00 | 64 | 1016.6 |
| 20260509131503 | 17 | 125 | 3.2 | 11.3 | 0.00 | 0.00 | 0.00 | 64 | 1016.5 |
| 20260509131403 | 17 | 123 | 3.2 | 11.3 | 0.00 | 0.00 | 0.00 | 64 | 1016.5 |
| 20260509131303 | 17 | 114 | 3.2 | 9.7 | 0.00 | 0.00 | 0.00 | 64 | 1016.6 |
| 20260509131204 | 17 | 106 | 3.2 | 9.7 | 0.00 | 0.00 | 0.00 | 64 | 1016.6 |
| 20260509131103 | 17 | 117 | 3.2 | 9.7 | 0.00 | 0.00 | 0.00 | 64 | 1016.7 |
| 20260509131003 | 17 | 121 | 3.2 | 9.7 | 0.00 | 0.00 | 0.00 | 64 | 1016.6 |
| 20260509130914 | 17 | 121 | 3.2 | 9.7 | 0.00 | 0.00 | 0.00 | 64 | 1016.6 |
| 20260509130904 | 17 | 115 | 3.2 | 9.7 | 0.00 | 0.00 | 0.00 | 64 | 1016.7 |
| 20260509130812 | 17 | 115 | 3.2 | 9.7 | 0.00 | 0.00 | 0.00 | 64 | 1016.7 |
| 20260509130803 | 17 | 116 | 3.2 | 12.9 | 0.00 | 0.00 | 0.00 | 64 | 1016.7 |
| 20260509130503 | 17 | 115 | 3.2 | 12.9 | 0.00 | 0.00 | 0.00 | 65 | 1016.9 |
| 20260509130404 | 17 | 123 | 3.2 | 12.9 | 0.00 | 0.00 | 0.00 | 65 | 1017.0 |
| 20260509130303 | 17 | 117 | 3.2 | 12.9 | 0.00 | 0.00 | 0.00 | 65 | 1016.8 |
| 20260509130203 | 17 | 107 | 3.2 | 12.9 | 0.00 | 0.00 | 0.00 | 65 | 1016.7 |
| 20260509130003 | 17 | 100 | 3.2 | 12.9 | 0.00 | 0.00 | 0.00 | 66 | 1016.7 |
| 20260509125915 | 17 | 100 | 3.2 | 12.9 | 0.00 | 0.00 | 0.00 | 66 | 1016.7 |
| 20260509125904 | 17 | 107 | 3.2 | 12.9 | 0.00 | 0.00 | 0.00 | 66 | 1016.6 |
| 20260509125803 | 17 | 98 | 3.2 | 12.9 | 0.00 | 0.00 | 0.00 | 66 | 1016.7 |
| 20260509125604 | 17 | 98 | 3.2 | 11.3 | 0.00 | 0.00 | 0.00 | 66 | 1016.6 |
| 20260509125504 | 16 | 104 | 3.2 | 11.3 | 0.00 | 0.00 | 0.00 | 66 | 1016.7 |
| 20260509125412 | 16 | 104 | 3.2 | 11.3 | 0.00 | 0.00 | 0.00 | 66 | 1016.7 |
| 20260509125403 | 16 | 86 | 3.2 | 11.3 | 0.00 | 0.00 | 0.00 | 66 | 1016.9 |
| 20260509125316 | 16 | 86 | 3.2 | 11.3 | 0.00 | 0.00 | 0.00 | 66 | 1016.9 |
| 20260509125307 | 16 | 96 | 3.2 | 11.3 | 0.00 | 0.00 | 0.00 | 66 | 1016.6 |
| 20260509125017 | 16 | 122 | 3.2 | 9.7 | 0.00 | 0.00 | 0.00 | 67 | 1016.8 |
| 20260509125003 | 16 | 104 | 3.2 | 9.7 | 0.00 | 0.00 | 0.00 | 67 | 1016.8 |
| 20260509124903 | 16 | 86 | 3.2 | 9.7 | 0.00 | 0.00 | 0.00 | 67 | 1016.8 |
| 20260509124703 | 16 | 97 | 4.8 | 11.3 | 0.00 | 0.00 | 0.00 | 66 | 1016.6 |
| 20260509124603 | 16 | 92 | 4.8 | 11.3 | 0.00 | 0.00 | 0.00 | 66 | 1016.7 |
| 20260509124503 | 16 | 69 | 4.8 | 11.3 | 0.00 | 0.00 | 0.00 | 66 | 1016.9 |
| 20260509124403 | 16 | 89 | 4.8 | 11.3 | 0.00 | 0.00 | 0.00 | 66 | 1016.8 |
| 20260509124312 | 16 | 89 | 4.8 | 11.3 | 0.00 | 0.00 | 0.00 | 66 | 1016.8 |
| 20260509124304 | 16 | 88 | 4.8 | 11.3 | 0.00 | 0.00 | 0.00 | 67 | 1016.7 |
| 20260509124203 | 16 | 95 | 4.8 | 11.3 | 0.00 | 0.00 | 0.00 | 67 | 1016.8 |
| 20260509124003 | 16 | 110 | 4.8 | 11.3 | 0.00 | 0.00 | 0.00 | 66 | 1016.8 |
| 20260509123903 | 16 | 118 | 4.8 | 11.3 | 0.00 | 0.00 | 0.00 | 65 | 1016.9 |
| 20260509123803 | 16 | 115 | 4.8 | 11.3 | 0.00 | 0.00 | 0.00 | 65 | 1016.8 |
| 20260509123703 | 16 | 105 | 4.8 | 11.3 | 0.00 | 0.00 | 0.00 | 65 | 1016.8 |
| 20260509123603 | 16 | 106 | 4.8 | 11.3 | 0.00 | 0.00 | 0.00 | 66 | 1016.9 |
| 20260509123504 | 16 | 116 | 3.2 | 11.3 | 0.00 | 0.00 | 0.00 | 65 | 1016.9 |
| 20260509123403 | 16 | 118 | 3.2 | 11.3 | 0.00 | 0.00 | 0.00 | 65 | 1016.8 |
| 20260509123313 | 16 | 118 | 3.2 | 11.3 | 0.00 | 0.00 | 0.00 | 65 | 1016.8 |
| 20260509123303 | 16 | 135 | 3.2 | 11.3 | 0.00 | 0.00 | 0.00 | 65 | 1016.9 |
| 20260509123203 | 16 | 118 | 3.2 | 11.3 | 0.00 | 0.00 | 0.00 | 65 | 1017.0 |
| 20260509123003 | 17 | 95 | 3.2 | 11.3 | 0.00 | 0.00 | 0.00 | 66 | 1016.8 |
| 20260509122903 | 17 | 112 | 3.2 | 14.5 | 0.00 | 0.00 | 0.00 | 67 | 1016.8 |
| 20260509122803 | 17 | 233 | 3.2 | 14.5 | 0.00 | 0.00 | 0.00 | 67 | 1016.8 |
| 20260509122715 | 17 | 233 | 3.2 | 14.5 | 0.00 | 0.00 | 0.00 | 67 | 1016.8 |
| 20260509122703 | 17 | 165 | 3.2 | 14.5 | 0.00 | 0.00 | 0.00 | 67 | 1016.9 |
| 20260509122603 | 17 | 119 | 3.2 | 14.5 | 0.00 | 0.00 | 0.00 | 67 | 1016.9 |
| 20260509122403 | 16 | 70 | 3.2 | 14.5 | 0.00 | 0.00 | 0.00 | 68 | 1016.8 |
| 20260509122306 | 16 | 76 | 4.8 | 14.5 | 0.00 | 0.00 | 0.00 | 68 | 1016.9 |
| 20260509122203 | 16 | 90 | 3.2 | 14.5 | 0.00 | 0.00 | 0.00 | 68 | 1017.0 |
| 20260509122103 | 16 | 75 | 3.2 | 14.5 | 0.00 | 0.00 | 0.00 | 68 | 1016.7 |
| 20260509122003 | 16 | 70 | 3.2 | 14.5 | 0.00 | 0.00 | 0.00 | 68 | 1016.8 |
| 20260509121903 | 16 | 61 | 4.8 | 14.5 | 0.00 | 0.00 | 0.00 | 68 | 1016.8 |
| 20260509121803 | 16 | 70 | 4.8 | 14.5 | 0.00 | 0.00 | 0.00 | 68 | 1016.8 |
| 20260509121703 | 16 | 64 | 4.8 | 12.9 | 0.00 | 0.00 | 0.00 | 68 | 1016.9 |
| 20260509121603 | 16 | 66 | 4.8 | 12.9 | 0.00 | 0.00 | 0.00 | 68 | 1016.9 |
| 20260509121513 | 16 | 66 | 4.8 | 12.9 | 0.00 | 0.00 | 0.00 | 68 | 1016.9 |
| 20260509121503 | 16 | 65 | 4.8 | 11.3 | 0.00 | 0.00 | 0.00 | 68 | 1017.0 |
| 20260509121416 | 16 | 65 | 4.8 | 11.3 | 0.00 | 0.00 | 0.00 | 68 | 1017.0 |
| 20260509121403 | 16 | 85 | 3.2 | 11.3 | 0.00 | 0.00 | 0.00 | 69 | 1016.8 |
| 20260509121103 | 16 | 55 | 4.8 | 11.3 | 0.00 | 0.00 | 0.00 | 68 | 1017.0 |
| 20260509121003 | 16 | 55 | 4.8 | 11.3 | 0.00 | 0.00 | 0.00 | 68 | 1016.9 |
| 20260509120903 | 16 | 71 | 4.8 | 11.3 | 0.00 | 0.00 | 0.00 | 68 | 1016.8 |
| 20260509120803 | 16 | 63 | 4.8 | 11.3 | 0.00 | 0.00 | 0.00 | 68 | 1016.9 |
| 20260509120703 | 16 | 110 | 4.8 | 11.3 | 0.00 | 0.00 | 0.00 | 68 | 1016.8 |
| 20260509120603 | 16 | 148 | 4.8 | 11.3 | 0.00 | 0.00 | 0.00 | 68 | 1016.8 |
| 20260509120504 | 16 | 129 | 3.2 | 11.3 | 0.00 | 0.00 | 0.00 | 69 | 1016.9 |
| 20260509120403 | 16 | 106 | 3.2 | 11.3 | 0.00 | 0.00 | 0.00 | 69 | 1016.9 |
| 20260509120304 | 16 | 116 | 4.8 | 11.3 | 0.00 | 0.00 | 0.00 | 69 | 1016.9 |
| 20260509120203 | 16 | 114 | 4.8 | 11.3 | 0.00 | 0.00 | 0.00 | 69 | 1016.8 |
| 20260509120003 | 16 | 106 | 4.8 | 11.3 | 0.00 | 0.00 | 0.00 | 69 | 1016.7 |
| 20260509115903 | 16 | 105 | 4.8 | 11.3 | 0.00 | 0.00 | 0.00 | 69 | 1017.0 |
| 20260509115803 | 16 | 107 | 4.8 | 11.3 | 0.00 | 0.00 | 0.00 | 68 | 1016.9 |
| 20260509115704 | 16 | 108 | 4.8 | 11.3 | 0.00 | 0.00 | 0.00 | 69 | 1017.0 |
| 20260509115616 | 16 | 108 | 4.8 | 11.3 | 0.00 | 0.00 | 0.00 | 69 | 1017.0 |
| 20260509115603 | 16 | 94 | 4.8 | 11.3 | 0.00 | 0.00 | 0.00 | 69 | 1016.9 |
| 20260509115503 | 16 | 94 | 4.8 | 11.3 | 0.00 | 0.00 | 0.00 | 68 | 1017.1 |
| 20260509115306 | 16 | 98 | 4.8 | 11.3 | 0.00 | 0.00 | 0.00 | 69 | 1017.0 |
| 20260509115203 | 16 | 101 | 4.8 | 11.3 | 0.00 | 0.00 | 0.00 | 69 | 1017.0 |
| 20260509115104 | 16 | 110 | 4.8 | 11.3 | 0.00 | 0.00 | 0.00 | 68 | 1017.1 |
| 20260509115013 | 16 | 110 | 4.8 | 11.3 | 0.00 | 0.00 | 0.00 | 68 | 1017.1 |
| 20260509115004 | 16 | 115 | 4.8 | 11.3 | 0.00 | 0.00 | 0.00 | 69 | 1016.9 |
| 20260509114903 | 16 | 115 | 3.2 | 11.3 | 0.00 | 0.00 | 0.00 | 69 | 1017.0 |
| 20260509114713 | 16 | 112 | 4.8 | 11.3 | 0.00 | 0.00 | 0.00 | 69 | 1017.1 |
| 20260509114703 | 16 | 105 | 4.8 | 11.3 | 0.00 | 0.00 | 0.00 | 69 | 1017.1 |
| 20260509114604 | 16 | 108 | 4.8 | 12.9 | 0.00 | 0.00 | 0.00 | 68 | 1017.2 |
| 20260509114403 | 16 | 105 | 4.8 | 12.9 | 0.00 | 0.00 | 0.00 | 69 | 1016.9 |
| 20260509114303 | 16 | 109 | 4.8 | 12.9 | 0.00 | 0.00 | 0.00 | 69 | 1017.0 |
| 20260509114203 | 16 | 95 | 3.2 | 12.9 | 0.00 | 0.00 | 0.00 | 69 | 1017.2 |
| 20260509114103 | 16 | 95 | 3.2 | 12.9 | 0.00 | 0.00 | 0.00 | 69 | 1017.1 |
| 20260509114004 | 16 | 114 | 3.2 | 12.9 | 0.00 | 0.00 | 0.00 | 69 | 1017.1 |
| 20260509113903 | 16 | 107 | 3.2 | 12.9 | 0.00 | 0.00 | 0.00 | 69 | 1017.2 |
| 20260509113803 | 16 | 115 | 3.2 | 12.9 | 0.00 | 0.00 | 0.00 | 69 | 1017.1 |
| 20260509113703 | 16 | 103 | 3.2 | 12.9 | 0.00 | 0.00 | 0.00 | 69 | 1017.1 |
| 20260509113603 | 16 | 103 | 3.2 | 12.9 | 0.00 | 0.00 | 0.00 | 69 | 1017.3 |
| 20260509113517 | 16 | 103 | 3.2 | 12.9 | 0.00 | 0.00 | 0.00 | 69 | 1017.3 |
| 20260509113504 | 16 | 97 | 4.8 | 12.9 | 0.00 | 0.00 | 0.00 | 69 | 1017.2 |
| 20260509113404 | 16 | 91 | 4.8 | 12.9 | 0.00 | 0.00 | 0.00 | 69 | 1017.4 |
| 20260509113314 | 16 | 91 | 4.8 | 12.9 | 0.00 | 0.00 | 0.00 | 69 | 1017.4 |
| 20260509113204 | 16 | 87 | 4.8 | 12.9 | 0.00 | 0.00 | 0.00 | 69 | 1017.4 |
| 20260509113004 | 16 | 65 | 4.8 | 12.9 | 0.00 | 0.00 | 0.00 | 69 | 1017.5 |
| 20260509112903 | 16 | 70 | 4.8 | 12.9 | 0.00 | 0.00 | 0.00 | 69 | 1017.2 |
| 20260509112803 | 16 | 66 | 4.8 | 12.9 | 0.00 | 0.00 | 0.00 | 69 | 1017.2 |
| 20260509112703 | 16 | 63 | 4.8 | 12.9 | 0.00 | 0.00 | 0.00 | 69 | 1017.5 |
| 20260509112603 | 16 | 71 | 3.2 | 12.9 | 0.00 | 0.00 | 0.00 | 69 | 1017.4 |
| 20260509112503 | 16 | 67 | 3.2 | 12.9 | 0.00 | 0.00 | 0.00 | 69 | 1017.3 |
| 20260509112404 | 16 | 71 | 3.2 | 12.9 | 0.00 | 0.00 | 0.00 | 69 | 1017.3 |
| 20260509112306 | 16 | 64 | 3.2 | 12.9 | 0.00 | 0.00 | 0.00 | 69 | 1017.4 |
| 20260509112205 | 16 | 74 | 3.2 | 9.7 | 0.00 | 0.00 | 0.00 | 69 | 1017.3 |
| 20260509112103 | 17 | 78 | 3.2 | 9.7 | 0.00 | 0.00 | 0.00 | 69 | 1017.4 |
| 20260509112015 | 17 | 78 | 3.2 | 9.7 | 0.00 | 0.00 | 0.00 | 69 | 1017.4 |
| 20260509112004 | 17 | 96 | 3.2 | 9.7 | 0.00 | 0.00 | 0.00 | 69 | 1017.3 |
| 20260509111904 | 17 | 90 | 3.2 | 9.7 | 0.00 | 0.00 | 0.00 | 70 | 1017.4 |
| 20260509111703 | 16 | 97 | 3.2 | 9.7 | 0.00 | 0.00 | 0.00 | 70 | 1017.4 |
| 20260509111603 | 16 | 92 | 3.2 | 9.7 | 0.00 | 0.00 | 0.00 | 70 | 1017.4 |
| 20260509111503 | 16 | 105 | 3.2 | 9.7 | 0.00 | 0.00 | 0.00 | 70 | 1017.3 |
| 20260509111417 | 16 | 105 | 3.2 | 9.7 | 0.00 | 0.00 | 0.00 | 70 | 1017.3 |
| 20260509111403 | 16 | 107 | 3.2 | 9.7 | 0.00 | 0.00 | 0.00 | 70 | 1017.5 |
| 20260509111304 | 16 | 106 | 3.2 | 9.7 | 0.00 | 0.00 | 0.00 | 70 | 1017.5 |
| 20260509111214 | 16 | 106 | 3.2 | 9.7 | 0.00 | 0.00 | 0.00 | 70 | 1017.5 |
| 20260509111113 | 16 | 106 | 3.2 | 9.7 | 0.00 | 0.00 | 0.00 | 70 | 1017.4 |
| 20260509111103 | 16 | 122 | 3.2 | 9.7 | 0.00 | 0.00 | 0.00 | 70 | 1017.4 |
| 20260509110915 | 16 | 120 | 3.2 | 9.7 | 0.00 | 0.00 | 0.00 | 70 | 1017.3 |
| 20260509110804 | 16 | 159 | 3.2 | 9.7 | 0.00 | 0.00 | 0.00 | 70 | 1017.4 |
| 20260509110603 | 17 | 141 | 3.2 | 14.5 | 0.00 | 0.00 | 0.00 | 70 | 1017.3 |
| 20260509110514 | 17 | 141 | 3.2 | 14.5 | 0.00 | 0.00 | 0.00 | 70 | 1017.3 |
| 20260509110504 | 17 | 134 | 3.2 | 14.5 | 0.00 | 0.00 | 0.00 | 71 | 1017.4 |
| 20260509110403 | 17 | 122 | 3.2 | 14.5 | 0.00 | 0.00 | 0.00 | 71 | 1017.5 |
| 20260509110203 | 16 | 128 | 3.2 | 14.5 | 0.00 | 0.00 | 0.00 | 71 | 1017.4 |
| 20260509110103 | 16 | 107 | 3.2 | 14.5 | 0.00 | 0.00 | 0.00 | 71 | 1017.5 |
| 20260509110003 | 16 | 109 | 4.8 | 14.5 | 0.00 | 0.00 | 0.00 | 71 | 1017.5 |
| 20260509105903 | 16 | 87 | 3.2 | 14.5 | 0.00 | 0.00 | 0.00 | 71 | 1017.6 |
| 20260509105803 | 16 | 91 | 3.2 | 14.5 | 0.00 | 0.00 | 0.00 | 70 | 1017.3 |
| 20260509105703 | 16 | 96 | 4.8 | 14.5 | 0.00 | 0.00 | 0.00 | 70 | 1017.2 |
| 20260509105604 | 16 | 113 | 4.8 | 14.5 | 0.00 | 0.00 | 0.00 | 71 | 1017.5 |
| 20260509105504 | 16 | 101 | 3.2 | 12.9 | 0.00 | 0.00 | 0.00 | 71 | 1017.5 |
| 20260509105403 | 16 | 104 | 3.2 | 12.9 | 0.00 | 0.00 | 0.00 | 70 | 1017.4 |
| 20260509105306 | 16 | 106 | 3.2 | 12.9 | 0.00 | 0.00 | 0.00 | 70 | 1017.6 |
| 20260509105216 | 16 | 106 | 3.2 | 12.9 | 0.00 | 0.00 | 0.00 | 70 | 1017.6 |
| 20260509105203 | 16 | 102 | 3.2 | 12.9 | 0.00 | 0.00 | 0.00 | 70 | 1017.5 |
| 20260509105103 | 17 | 107 | 3.2 | 12.9 | 0.00 | 0.00 | 0.00 | 70 | 1017.5 |
| 20260509104903 | 17 | 102 | 3.2 | 9.7 | 0.00 | 0.00 | 0.00 | 70 | 1017.4 |
| 20260509104803 | 17 | 94 | 3.2 | 9.7 | 0.00 | 0.00 | 0.00 | 70 | 1017.5 |
| 20260509104704 | 17 | 88 | 1.6 | 9.7 | 0.00 | 0.00 | 0.00 | 70 | 1017.5 |
| 20260509104603 | 17 | 73 | 1.6 | 9.7 | 0.00 | 0.00 | 0.00 | 70 | 1017.3 |
| 20260509104503 | 17 | 62 | 1.6 | 9.7 | 0.00 | 0.00 | 0.00 | 71 | 1017.4 |
| 20260509104403 | 17 | 50 | 1.6 | 9.7 | 0.00 | 0.00 | 0.00 | 71 | 1017.5 |
| 20260509104303 | 17 | 50 | 3.2 | 9.7 | 0.00 | 0.00 | 0.00 | 71 | 1017.4 |
| 20260509104217 | 17 | 50 | 3.2 | 9.7 | 0.00 | 0.00 | 0.00 | 71 | 1017.4 |
| 20260509104204 | 17 | 55 | 3.2 | 9.7 | 0.00 | 0.00 | 0.00 | 72 | 1017.4 |
| 20260509104108 | 16 | 67 | 3.2 | 9.7 | 0.00 | 0.00 | 0.00 | 72 | 1017.6 |
| 20260509103918 | 16 | 71 | 3.2 | 9.7 | 0.00 | 0.00 | 0.00 | 72 | 1017.5 |
| 20260509103903 | 16 | 74 | 3.2 | 9.7 | 0.00 | 0.00 | 0.00 | 72 | 1017.5 |
| 20260509103803 | 16 | 81 | 3.2 | 9.7 | 0.00 | 0.00 | 0.00 | 72 | 1017.5 |
| 20260509103603 | 16 | 77 | 3.2 | 9.7 | 0.00 | 0.00 | 0.00 | 72 | 1017.5 |
| 20260509103503 | 16 | 88 | 3.2 | 9.7 | 0.00 | 0.00 | 0.00 | 71 | 1017.5 |
| 20260509103404 | 16 | 87 | 3.2 | 9.7 | 0.00 | 0.00 | 0.00 | 71 | 1017.4 |
| 20260509103304 | 16 | 83 | 3.2 | 11.3 | 0.00 | 0.00 | 0.00 | 71 | 1017.5 |
| 20260509103203 | 16 | 67 | 3.2 | 11.3 | 0.00 | 0.00 | 0.00 | 71 | 1017.6 |
| 20260509103117 | 16 | 67 | 3.2 | 11.3 | 0.00 | 0.00 | 0.00 | 71 | 1017.6 |
| 20260509103103 | 16 | 63 | 3.2 | 11.3 | 0.00 | 0.00 | 0.00 | 71 | 1017.7 |
| 20260509103003 | 16 | 64 | 3.2 | 11.3 | 0.00 | 0.00 | 0.00 | 71 | 1017.6 |
| 20260509102803 | 16 | 66 | 3.2 | 11.3 | 0.00 | 0.00 | 0.00 | 71 | 1017.7 |
| 20260509102716 | 16 | 66 | 3.2 | 11.3 | 0.00 | 0.00 | 0.00 | 71 | 1017.7 |
| 20260509102704 | 16 | 75 | 3.2 | 11.3 | 0.00 | 0.00 | 0.00 | 71 | 1017.7 |
| 20260509102603 | 16 | 84 | 4.8 | 11.3 | 0.00 | 0.00 | 0.00 | 71 | 1017.7 |
| 20260509102403 | 16 | 84 | 4.8 | 11.3 | 0.00 | 0.00 | 0.00 | 71 | 1017.5 |
| 20260509102305 | 16 | 96 | 4.8 | 11.3 | 0.00 | 0.00 | 0.00 | 71 | 1017.6 |
| 20260509102203 | 16 | 107 | 4.8 | 11.3 | 0.00 | 0.00 | 0.00 | 71 | 1017.7 |
| 20260509102103 | 16 | 109 | 3.2 | 11.3 | 0.00 | 0.00 | 0.00 | 72 | 1017.8 |
| 20260509102016 | 16 | 109 | 3.2 | 11.3 | 0.00 | 0.00 | 0.00 | 72 | 1017.8 |
| 20260509102003 | 16 | 125 | 3.2 | 11.3 | 0.00 | 0.00 | 0.00 | 72 | 1017.6 |
| 20260509101903 | 16 | 124 | 3.2 | 11.3 | 0.00 | 0.00 | 0.00 | 71 | 1017.6 |
| 20260509101703 | 16 | 126 | 3.2 | 11.3 | 0.00 | 0.00 | 0.00 | 71 | 1017.5 |
| 20260509101616 | 16 | 126 | 3.2 | 11.3 | 0.00 | 0.00 | 0.00 | 71 | 1017.5 |
| 20260509101606 | 16 | 132 | 3.2 | 12.9 | 0.00 | 0.00 | 0.00 | 71 | 1017.5 |
| 20260509101503 | 16 | 145 | 3.2 | 12.9 | 0.00 | 0.00 | 0.00 | 71 | 1017.6 |
| 20260509101316 | 16 | 153 | 3.2 | 12.9 | 0.00 | 0.00 | 0.00 | 71 | 1017.5 |
| 20260509101303 | 16 | 181 | 3.2 | 12.9 | 0.00 | 0.00 | 0.00 | 71 | 1017.5 |
| 20260509101204 | 16 | 180 | 3.2 | 12.9 | 0.00 | 0.00 | 0.00 | 72 | 1017.4 |
| 20260509101113 | 16 | 180 | 3.2 | 12.9 | 0.00 | 0.00 | 0.00 | 72 | 1017.4 |
| 20260509101017 | 16 | 165 | 3.2 | 12.9 | 0.00 | 0.00 | 0.00 | 72 | 1017.5 |
| 20260509101003 | 16 | 206 | 4.8 | 12.9 | 0.00 | 0.00 | 0.00 | 72 | 1017.6 |
| 20260509100703 | 16 | 240 | 3.2 | 12.9 | 0.00 | 0.00 | 0.00 | 71 | 1017.7 |
| 20260509100603 | 16 | 54 | 4.8 | 12.9 | 0.00 | 0.00 | 0.00 | 71 | 1017.4 |
| 20260509100503 | 16 | 159 | 3.2 | 11.3 | 0.00 | 0.00 | 0.00 | 71 | 1017.7 |
| 20260509100403 | 16 | 135 | 3.2 | 11.3 | 0.00 | 0.00 | 0.00 | 71 | 1017.5 |
| 20260509100312 | 16 | 135 | 3.2 | 11.3 | 0.00 | 0.00 | 0.00 | 71 | 1017.5 |
| 20260509100303 | 16 | 122 | 3.2 | 11.3 | 0.00 | 0.00 | 0.00 | 71 | 1017.5 |
| 20260509100204 | 16 | 121 | 3.2 | 11.3 | 0.00 | 0.00 | 0.00 | 71 | 1017.4 |
| 20260509100114 | 16 | 121 | 3.2 | 11.3 | 0.00 | 0.00 | 0.00 | 71 | 1017.4 |
| 20260509100003 | 16 | 109 | 3.2 | 11.3 | 0.00 | 0.00 | 0.00 | 71 | 1017.6 |
| 20260509095803 | 16 | 106 | 3.2 | 11.3 | 0.00 | 0.00 | 0.00 | 71 | 1017.6 |
| 20260509095703 | 16 | 106 | 3.2 | 11.3 | 0.00 | 0.00 | 0.00 | 71 | 1017.5 |
| 20260509095603 | 16 | 115 | 3.2 | 11.3 | 0.00 | 0.00 | 0.00 | 71 | 1017.6 |
| 20260509095504 | 16 | 110 | 3.2 | 11.3 | 0.00 | 0.00 | 0.00 | 71 | 1017.4 |
| 20260509095407 | 16 | 110 | 3.2 | 11.3 | 0.00 | 0.00 | 0.00 | 71 | 1017.4 |
| 20260509095305 | 16 | 115 | 3.2 | 11.3 | 0.00 | 0.00 | 0.00 | 71 | 1017.5 |
| 20260509095203 | 16 | 118 | 4.8 | 11.3 | 0.00 | 0.00 | 0.00 | 71 | 1017.4 |
| 20260509095103 | 16 | 118 | 4.8 | 11.3 | 0.00 | 0.00 | 0.00 | 71 | 1017.5 |
| 20260509095004 | 16 | 115 | 4.8 | 11.3 | 0.00 | 0.00 | 0.00 | 71 | 1017.6 |
| 20260509094903 | 16 | 111 | 4.8 | 11.3 | 0.00 | 0.00 | 0.00 | 71 | 1017.4 |
| 20260509094816 | 16 | 111 | 4.8 | 11.3 | 0.00 | 0.00 | 0.00 | 71 | 1017.4 |
| 20260509094803 | 16 | 100 | 4.8 | 11.3 | 0.00 | 0.00 | 0.00 | 71 | 1017.4 |
| 20260509094703 | 16 | 113 | 4.8 | 11.3 | 0.00 | 0.00 | 0.00 | 71 | 1017.4 |
| 20260509094503 | 16 | 109 | 4.8 | 11.3 | 0.00 | 0.00 | 0.00 | 71 | 1017.4 |
| 20260509094403 | 16 | 103 | 4.8 | 11.3 | 0.00 | 0.00 | 0.00 | 71 | 1017.5 |
| 20260509094303 | 16 | 91 | 4.8 | 11.3 | 0.00 | 0.00 | 0.00 | 71 | 1017.7 |
| 20260509094203 | 16 | 75 | 3.2 | 11.3 | 0.00 | 0.00 | 0.00 | 71 | 1017.4 |
| 20260509094103 | 16 | 83 | 3.2 | 11.3 | 0.00 | 0.00 | 0.00 | 70 | 1017.5 |
| 20260509094004 | 16 | 85 | 3.2 | 11.3 | 0.00 | 0.00 | 0.00 | 71 | 1017.5 |
| 20260509093904 | 16 | 91 | 3.2 | 11.3 | 0.00 | 0.00 | 0.00 | 71 | 1017.6 |
| 20260509093817 | 16 | 91 | 3.2 | 11.3 | 0.00 | 0.00 | 0.00 | 71 | 1017.6 |
| 20260509093803 | 16 | 117 | 3.2 | 9.7 | 0.00 | 0.00 | 0.00 | 70 | 1017.4 |
| 20260509093703 | 16 | 90 | 3.2 | 9.7 | 0.00 | 0.00 | 0.00 | 71 | 1017.3 |